EW0892 Weather Reports


Display with metric or nautical units.
time (UTC)temp
F
wind
direction
speed
MPH
gust
MPH
rain 1hr
in
rain 24hr
in
rain mn
in
humidity
%
barometer
mb
20210618181304 85 228 1.0 8.0 0.00 0.00 0.00 38 1011.0
20210618181204 85 229 1.0 8.0 0.00 0.00 0.00 38 1011.1
20210618181104 85 225 1.0 7.0 0.00 0.00 0.00 38 1011.0
20210618181004 85 233 1.0 7.0 0.00 0.00 0.00 40 1011.1
20210618180904 85 233 1.0 7.0 0.00 0.00 0.00 39 1011.1
20210618180804 85 231 1.0 7.0 0.00 0.00 0.00 38 1011.1
20210618180704 85 227 1.0 7.0 0.00 0.00 0.00 37 1011.1
20210618180604 85 221 1.0 8.0 0.00 0.00 0.00 37 1011.1
20210618180504 85 215 1.0 8.0 0.00 0.00 0.00 38 1011.1
20210618180404 85 213 1.0 8.0 0.00 0.00 0.00 38 1011.1
20210618180304 85 211 1.0 8.0 0.00 0.00 0.00 38 1011.1
20210618180204 85 210 1.0 8.0 0.00 0.00 0.00 38 1011.1
20210618180104 85 208 1.0 8.0 0.00 0.00 0.00 38 1011.1
20210618180004 85 209 1.0 8.0 0.00 0.00 0.00 38 1011.1
20210618175904 84 212 1.0 8.0 0.00 0.00 0.00 37 1011.1
20210618175804 84 213 1.0 8.0 0.00 0.00 0.00 37 1011.1
20210618175704 84 216 1.0 8.0 0.00 0.00 0.00 37 1011.1
20210618175604 84 217 1.0 8.0 0.00 0.00 0.00 39 1011.1
20210618175503 84 221 1.0 9.0 0.00 0.00 0.00 40 1011.2
20210618175404 84 221 1.0 12.0 0.00 0.00 0.00 40 1011.2
20210618175305 84 219 2.0 12.0 0.00 0.00 0.00 39 1011.2
20210618175204 84 215 2.0 12.0 0.00 0.00 0.00 38 1011.2
20210618175104 84 218 2.0 12.0 0.00 0.00 0.00 38 1011.2
20210618175004 84 221 2.0 12.0 0.00 0.00 0.00 38 1011.2
20210618174904 84 222 2.0 12.0 0.00 0.00 0.00 39 1011.2
20210618174803 84 224 3.0 12.0 0.00 0.00 0.00 38 1011.2
20210618174704 84 224 3.0 12.0 0.00 0.00 0.00 37 1011.3
20210618174604 83 224 2.0 12.0 0.00 0.00 0.00 36 1011.3
20210618174504 83 225 2.0 12.0 0.00 0.00 0.00 35 1011.4
20210618174404 83 227 2.0 9.0 0.00 0.00 0.00 36 1011.3
20210618174304 84 232 2.0 9.0 0.00 0.00 0.00 36 1011.3
20210618174204 84 235 2.0 9.0 0.00 0.00 0.00 35 1011.4
20210618174103 84 236 2.0 9.0 0.00 0.00 0.00 36 1011.4
20210618174004 84 232 2.0 9.0 0.00 0.00 0.00 36 1011.4
20210618173904 84 231 2.0 10.0 0.00 0.00 0.00 35 1011.4
20210618173803 84 229 2.0 10.0 0.00 0.00 0.00 38 1011.4
20210618173704 84 227 3.0 10.0 0.00 0.00 0.00 38 1011.4
20210618173604 84 227 3.0 10.0 0.00 0.00 0.00 38 1011.5
20210618173504 84 229 3.0 10.0 0.00 0.00 0.00 36 1011.5
20210618173404 84 226 3.0 10.0 0.00 0.00 0.00 35 1011.6
20210618173304 84 224 3.0 10.0 0.00 0.00 0.00 36 1011.6
20210618173203 84 223 3.0 10.0 0.00 0.00 0.00 37 1011.6
20210618173104 84 222 3.0 10.0 0.00 0.00 0.00 37 1011.6
20210618173004 85 222 2.0 10.0 0.00 0.00 0.00 36 1011.6
20210618172904 85 221 2.0 10.0 0.00 0.00 0.00 36 1011.6
20210618172804 85 220 2.0 10.0 0.00 0.00 0.00 36 1011.6
20210618172703 85 222 2.0 10.0 0.00 0.00 0.00 37 1011.6
20210618172604 85 222 2.0 10.0 0.00 0.00 0.00 36 1011.7
20210618172504 85 216 1.0 10.0 0.00 0.00 0.00 35 1011.7
20210618172404 86 222 1.0 8.0 0.00 0.00 0.00 36 1011.7
20210618172305 85 228 1.0 8.0 0.00 0.00 0.00 38 1011.7
20210618172204 85 239 1.0 8.0 0.00 0.00 0.00 38 1011.8
20210618172104 85 237 1.0 8.0 0.00 0.00 0.00 38 1011.8
20210618172004 85 237 1.0 8.0 0.00 0.00 0.00 39 1011.8
20210618171904 85 236 1.0 8.0 0.00 0.00 0.00 37 1011.8
20210618171804 85 235 1.0 8.0 0.00 0.00 0.00 39 1011.8
20210618171703 84 235 1.0 7.0 0.00 0.00 0.00 40 1011.9
20210618171604 84 232 1.0 7.0 0.00 0.00 0.00 39 1011.9
20210618171504 84 230 1.0 7.0 0.00 0.00 0.00 38 1011.9
20210618171403 84 226 1.0 7.0 0.00 0.00 0.00 38 1011.9
20210618171304 84 221 1.0 7.0 0.00 0.00 0.00 39 1012.0
20210618171204 84 217 1.0 7.0 0.00 0.00 0.00 38 1012.0
20210618171104 84 221 1.0 7.0 0.00 0.00 0.00 37 1012.0
20210618171004 84 217 1.0 6.0 0.00 0.00 0.00 38 1012.0
20210618170903 84 220 1.0 6.0 0.00 0.00 0.00 37 1012.0
20210618170804 84 220 1.0 6.0 0.00 0.00 0.00 38 1012.0
20210618170704 84 222 1.0 6.0 0.00 0.00 0.00 38 1012.1
20210618170603 84 223 1.0 6.0 0.00 0.00 0.00 38 1012.1
20210618170504 84 227 1.0 6.0 0.00 0.00 0.00 38 1012.2
20210618170404 84 229 1.0 6.0 0.00 0.00 0.00 38 1012.1
20210618170303 84 237 1.0 6.0 0.00 0.00 0.00 38 1012.1
20210618170204 84 240 1.0 6.0 0.00 0.00 0.00 39 1012.2
20210618170104 84 237 1.0 6.0 0.00 0.00 0.00 39 1012.2
20210618170004 84 236 1.0 6.0 0.00 0.00 0.00 40 1012.2
20210618165904 84 230 1.0 6.0 0.00 0.00 0.00 40 1012.2
20210618165804 84 226 1.0 6.0 0.00 0.00 0.00 40 1012.2
20210618165704 83 223 1.0 8.0 0.00 0.00 0.00 40 1012.1
20210618165604 83 216 1.0 8.0 0.00 0.00 0.00 39 1012.2
20210618165503 83 213 1.0 8.0 0.00 0.00 0.00 40 1012.3
20210618165404 83 214 1.0 8.0 0.00 0.00 0.00 41 1012.3
20210618165306 83 214 1.0 8.0 0.00 0.00 0.00 41 1012.3
20210618165204 83 215 2.0 8.0 0.00 0.00 0.00 41 1012.3
20210618165104 82 216 2.0 8.0 0.00 0.00 0.00 42 1012.2
20210618165004 82 214 2.0 8.0 0.00 0.00 0.00 41 1012.2
20210618164904 82 210 2.0 8.0 0.00 0.00 0.00 39 1012.2
20210618164804 82 208 2.0 8.0 0.00 0.00 0.00 39 1012.2
20210618164703 82 204 2.0 6.0 0.00 0.00 0.00 40 1012.3
20210618164604 82 208 2.0 6.0 0.00 0.00 0.00 41 1012.3
20210618164504 82 203 2.0 6.0 0.00 0.00 0.00 41 1012.4
20210618164404 82 203 1.0 6.0 0.00 0.00 0.00 40 1012.4
20210618164304 82 199 1.0 6.0 0.00 0.00 0.00 39 1012.4
20210618164204 82 196 1.0 6.0 0.00 0.00 0.00 41 1012.4
20210618164104 82 201 1.0 6.0 0.00 0.00 0.00 40 1012.4
20210618164003 82 202 1.0 6.0 0.00 0.00 0.00 40 1012.4
20210618163904 82 210 1.0 6.0 0.00 0.00 0.00 41 1012.4
20210618163804 82 213 1.0 6.0 0.00 0.00 0.00 41 1012.4
20210618163703 82 213 1.0 5.0 0.00 0.00 0.00 41 1012.4
20210618163604 82 219 1.0 4.0 0.00 0.00 0.00 40 1012.5
20210618163504 82 228 1.0 4.0 0.00 0.00 0.00 41 1012.5
20210618163404 82 230 1.0 4.0 0.00 0.00 0.00 42 1012.5
20210618163304 82 232 1.0 4.0 0.00 0.00 0.00 40 1012.5
20210618163203 82 234 1.0 4.0 0.00 0.00 0.00 40 1012.5
20210618163104 82 218 1.0 6.0 0.00 0.00 0.00 41 1012.5
20210618163004 81 217 1.0 6.0 0.00 0.00 0.00 41 1012.5
20210618162903 81 218 1.0 6.0 0.00 0.00 0.00 41 1012.4
20210618162804 81 233 1.0 6.0 0.00 0.00 0.00 42 1012.5
20210618162704 81 229 1.0 6.0 0.00 0.00 0.00 42 1012.5
20210618162604 81 204 2.0 8.0 0.00 0.00 0.00 42 1012.5
20210618162504 81 214 2.0 12.0 0.00 0.00 0.00 41 1012.5
20210618162404 81 212 2.0 12.0 0.00 0.00 0.00 42 1012.5
20210618162305 81 211 2.0 12.0 0.00 0.00 0.00 42 1012.5
20210618162204 80 208 2.0 12.0 0.00 0.00 0.00 41 1012.6
20210618162104 80 215 2.0 12.0 0.00 0.00 0.00 42 1012.6
20210618162004 80 217 2.0 12.0 0.00 0.00 0.00 43 1012.6
20210618161903 80 220 2.0 12.0 0.00 0.00 0.00 42 1012.7
20210618161804 80 216 2.0 12.0 0.00 0.00 0.00 42 1012.7
20210618161704 80 219 2.0 12.0 0.00 0.00 0.00 41 1012.7
20210618161603 80 224 2.0 12.0 0.00 0.00 0.00 41 1012.7
20210618161504 80 228 2.0 8.0 0.00 0.00 0.00 42 1012.7
20210618161404 80 228 2.0 8.0 0.00 0.00 0.00 44 1012.7
20210618161304 80 228 2.0 8.0 0.00 0.00 0.00 44 1012.7
20210618161204 80 229 2.0 8.0 0.00 0.00 0.00 44 1012.7
20210618161104 80 227 2.0 8.0 0.00 0.00 0.00 44 1012.6
20210618161004 80 226 2.0 8.0 0.00 0.00 0.00 43 1012.7
20210618160903 80 224 1.0 8.0 0.00 0.00 0.00 42 1012.8
20210618160804 80 225 1.0 8.0 0.00 0.00 0.00 42 1012.8
20210618160704 80 226 1.0 7.0 0.00 0.00 0.00 42 1012.8
20210618160603 80 227 0.0 7.0 0.00 0.00 0.00 42 1012.8
20210618160504 80 217 1.0 4.0 0.00 0.00 0.00 43 1012.8
20210618160404 80 210 1.0 5.0 0.00 0.00 0.00 43 1012.8
20210618160304 80 208 1.0 7.0 0.00 0.00 0.00 43 1012.8
20210618160204 80 209 1.0 7.0 0.00 0.00 0.00 42 1012.8
20210618160104 80 209 1.0 7.0 0.00 0.00 0.00 43 1012.8
20210618160004 79 209 1.0 7.0 0.00 0.00 0.00 43 1012.8
20210618155904 79 214 1.0 7.0 0.00 0.00 0.00 43 1012.8
20210618155804 79 214 1.0 7.0 0.00 0.00 0.00 43 1012.8
20210618155704 79 218 2.0 7.0 0.00 0.00 0.00 43 1012.8
20210618155604 79 217 2.0 7.0 0.00 0.00 0.00 40 1012.7
20210618155503 79 218 2.0 7.0 0.00 0.00 0.00 40 1012.8
20210618155404 79 220 1.0 7.0 0.00 0.00 0.00 41 1012.7
20210618155305 79 224 1.0 7.0 0.00 0.00 0.00 42 1012.8
20210618155204 79 227 1.0 7.0 0.00 0.00 0.00 40 1012.8
20210618155104 79 228 1.0 7.0 0.00 0.00 0.00 42 1012.8
20210618155004 79 229 1.0 7.0 0.00 0.00 0.00 40 1012.7
20210618154904 79 227 1.0 7.0 0.00 0.00 0.00 40 1012.8
20210618154803 79 227 1.0 7.0 0.00 0.00 0.00 40 1012.8
20210618154704 79 224 1.0 7.0 0.00 0.00 0.00 41 1012.8
20210618154603 79 228 1.0 7.0 0.00 0.00 0.00 43 1012.8
20210618154504 79 228 1.0 7.0 0.00 0.00 0.00 43 1012.8
20210618154404 78 227 1.0 7.0 0.00 0.00 0.00 42 1012.8
20210618154303 78 227 0.0 7.0 0.00 0.00 0.00 42 1012.8
20210618154204 78 224 1.0 7.0 0.00 0.00 0.00 43 1012.8
20210618154104 78 217 1.0 7.0 0.00 0.00 0.00 43 1012.8
20210618154003 78 211 1.0 7.0 0.00 0.00 0.00 43 1012.8
20210618153904 78 199 1.0 7.0 0.00 0.00 0.00 43 1012.8
20210618153804 78 196 1.0 7.0 0.00 0.00 0.00 45 1012.8
20210618153703 78 195 1.0 7.0 0.00 0.00 0.00 44 1012.8
20210618153604 78 192 1.0 7.0 0.00 0.00 0.00 43 1012.9
20210618153504 78 188 1.0 7.0 0.00 0.00 0.00 43 1012.9
20210618153404 78 181 1.0 7.0 0.00 0.00 0.00 44 1012.9
20210618153304 78 191 1.0 7.0 0.00 0.00 0.00 43 1012.9
20210618153204 78 188 1.0 7.0 0.00 0.00 0.00 42 1013.0
20210618153104 78 175 1.0 7.0 0.00 0.00 0.00 43 1013.0
20210618153004 78 178 1.0 7.0 0.00 0.00 0.00 43 1013.0
20210618152904 78 197 1.0 7.0 0.00 0.00 0.00 44 1013.1
20210618152804 77 198 1.0 7.0 0.00 0.00 0.00 44 1013.1
20210618152704 77 199 1.0 7.0 0.00 0.00 0.00 44 1013.1
20210618152604 77 206 1.0 7.0 0.00 0.00 0.00 44 1013.1
20210618152504 77 211 1.0 7.0 0.00 0.00 0.00 43 1013.1
20210618152404 77 217 1.0 7.0 0.00 0.00 0.00 44 1013.1
20210618152305 77 206 1.0 5.0 0.00 0.00 0.00 45 1013.2
20210618152204 76 212 0.0 5.0 0.00 0.00 0.00 44 1013.2
20210618152104 76 217 0.0 5.0 0.00 0.00 0.00 43 1013.3
20210618152004 76 215 0.0 5.0 0.00 0.00 0.00 44 1013.3
20210618151904 76 213 0.0 5.0 0.00 0.00 0.00 44 1013.3
20210618151804 76 213 0.0 5.0 0.00 0.00 0.00 44 1013.3
20210618151704 76 211 1.0 5.0 0.00 0.00 0.00 44 1013.3
20210618151603 76 211 1.0 5.0 0.00 0.00 0.00 43 1013.3
20210618151504 76 212 0.0 5.0 0.00 0.00 0.00 44 1013.3
20210618151404 76 208 0.0 4.0 0.00 0.00 0.00 44 1013.3
20210618151303 76 210 0.0 4.0 0.00 0.00 0.00 45 1013.3
20210618151204 76 223 1.0 6.0 0.00 0.00 0.00 45 1013.3
20210618151104 76 220 1.0 6.0 0.00 0.00 0.00 44 1013.3
20210618151004 75 222 1.0 6.0 0.00 0.00 0.00 44 1013.3
20210618150904 75 220 1.0 6.0 0.00 0.00 0.00 43 1013.3
20210618150804 75 220 1.0 6.0 0.00 0.00 0.00 44 1013.3
20210618150704 75 221 1.0 6.0 0.00 0.00 0.00 45 1013.3
20210618150603 75 214 1.0 7.0 0.00 0.00 0.00 45 1013.3
20210618150504 75 215 1.0 7.0 0.00 0.00 0.00 45 1013.3
20210618150404 75 215 2.0 7.0 0.00 0.00 0.00 43 1013.3
20210618150303 75 210 2.0 7.0 0.00 0.00 0.00 44 1013.3
20210618150204 75 207 2.0 7.0 0.00 0.00 0.00 44 1013.3
20210618150104 75 207 2.0 7.0 0.00 0.00 0.00 44 1013.4
20210618150005 75 207 2.0 7.0 0.00 0.00 0.00 44 1013.3
20210618145904 74 206 2.0 7.0 0.00 0.00 0.00 43 1013.3
20210618145803 74 206 1.0 7.0 0.00 0.00 0.00 43 1013.3
20210618145704 74 206 1.0 7.0 0.00 0.00 0.00 43 1013.3
20210618145604 74 207 1.0 7.0 0.00 0.00 0.00 44 1013.3
20210618145503 74 203 1.0 7.0 0.00 0.00 0.00 44 1013.3
20210618145404 74 201 1.0 7.0 0.00 0.00 0.00 44 1013.3
20210618145305 74 206 1.0 6.0 0.00 0.00 0.00 44 1013.3
20210618145204 74 203 0.0 6.0 0.00 0.00 0.00 46 1013.3
20210618145104 74 201 0.0 6.0 0.00 0.00 0.00 46 1013.4
20210618145004 74 200 0.0 6.0 0.00 0.00 0.00 46 1013.4
20210618144904 74 198 1.0 6.0 0.00 0.00 0.00 46 1013.4
20210618144804 74 198 1.0 6.0 0.00 0.00 0.00 46 1013.4
20210618144704 73 197 1.0 6.0 0.00 0.00 0.00 45 1013.5
20210618144603 73 186 1.0 7.0 0.00 0.00 0.00 46 1013.5
20210618144504 73 196 1.0 7.0 0.00 0.00 0.00 47 1013.5
20210618144404 73 200 1.0 7.0 0.00 0.00 0.00 46 1013.5
20210618144303 73 202 1.0 7.0 0.00 0.00 0.00 46 1013.5
20210618144204 73 204 1.0 7.0 0.00 0.00 0.00 46 1013.5
20210618144104 73 209 1.0 7.0 0.00 0.00 0.00 46 1013.6
20210618144004 73 218 1.0 7.0 0.00 0.00 0.00 47 1013.6
20210618143904 73 221 1.0 7.0 0.00 0.00 0.00 48 1013.7
20210618143803 73 229 1.0 7.0 0.00 0.00 0.00 49 1013.6
20210618143704 72 229 0.0 7.0 0.00 0.00 0.00 48 1013.6
20210618143604 72 242 0.0 3.0 0.00 0.00 0.00 49 1013.7
20210618143504 72 242 0.0 3.0 0.00 0.00 0.00 49 1013.7
20210618143404 72 242 0.0 3.0 0.00 0.00 0.00 50 1013.7
20210618143304 72 242 0.0 3.0 0.00 0.00 0.00 51 1013.7
20210618143203 72 242 1.0 4.0 0.00 0.00 0.00 50 1013.7
20210618143104 71 243 0.0 5.0 0.00 0.00 0.00 49 1013.8
20210618143004 71 243 0.0 5.0 0.00 0.00 0.00 50 1013.8
20210618142904 71 243 0.0 5.0 0.00 0.00 0.00 51 1013.8
20210618142804 71 242 0.0 5.0 0.00 0.00 0.00 51 1013.8
20210618142704 71 242 0.0 5.0 0.00 0.00 0.00 49 1013.9
20210618142604 70 242 0.0 5.0 0.00 0.00 0.00 49 1013.9
20210618142504 70 243 0.0 5.0 0.00 0.00 0.00 49 1013.9
20210618142404 70 242 1.0 5.0 0.00 0.00 0.00 49 1013.9
20210618142305 70 243 1.0 6.0 0.00 0.00 0.00 50 1014.0
20210618142203 70 243 1.0 6.0 0.00 0.00 0.00 51 1014.0
20210618142104 70 243 1.0 6.0 0.00 0.00 0.00 51 1014.0
20210618142004 70 243 1.0 6.0 0.00 0.00 0.00 51 1014.0
20210618141903 70 243 1.0 6.0 0.00 0.00 0.00 51 1014.0
20210618141804 70 243 1.0 6.0 0.00 0.00 0.00 50 1014.0
20210618141704 70 243 1.0 6.0 0.00 0.00 0.00 50 1014.0
20210618141603 70 243 1.0 6.0 0.00 0.00 0.00 50 1014.1
20210618141504 70 243 1.0 6.0 0.00 0.00 0.00 50 1014.0
20210618141404 70 243 1.0 6.0 0.00 0.00 0.00 49 1014.0
20210618141304 70 243 0.0 5.0 0.00 0.00 0.00 51 1014.0
20210618141204 70 243 0.0 5.0 0.00 0.00 0.00 51 1014.0
20210618141104 70 243 0.0 2.0 0.00 0.00 0.00 52 1014.0
20210618141004 70 243 0.0 2.0 0.00 0.00 0.00 51 1014.0
20210618140904 70 243 0.0 2.0 0.00 0.00 0.00 50 1014.0
20210618140804 70 243 0.0 2.0 0.00 0.00 0.00 52 1014.1
20210618140704 69 243 0.0 1.0 0.00 0.00 0.00 52 1014.1
20210618140604 69 243 0.0 1.0 0.00 0.00 0.00 52 1014.1
20210618140504 69 243 0.0 1.0 0.00 0.00 0.00 54 1014.1
20210618140404 69 243 0.0 1.0 0.00 0.00 0.00 55 1014.1
20210618140304 69 243 0.0 2.0 0.00 0.00 0.00 56 1014.1
20210618140204 69 243 0.0 2.0 0.00 0.00 0.00 56 1014.1
20210618140104 69 243 0.0 2.0 0.00 0.00 0.00 57 1014.2
20210618140004 68 243 0.0 2.0 0.00 0.00 0.00 58 1014.2
20210618135904 68 243 0.0 2.0 0.00 0.00 0.00 58 1014.2
20210618135804 68 243 0.0 2.0 0.00 0.00 0.00 57 1014.2
20210618135704 68 243 0.0 2.0 0.00 0.00 0.00 58 1014.2
20210618135603 68 243 0.0 2.0 0.00 0.00 0.00 57 1014.3
20210618135504 68 243 0.0 2.0 0.00 0.00 0.00 57 1014.3
20210618135403 68 243 0.0 2.0 0.00 0.00 0.00 57 1014.3
20210618135305 67 243 0.0 2.0 0.00 0.00 0.00 58 1014.3
20210618135204 67 243 0.0 2.0 0.00 0.00 0.00 58 1014.3
20210618135103 67 243 0.0 2.0 0.00 0.00 0.00 58 1014.4
20210618135004 67 243 0.0 2.0 0.00 0.00 0.00 58 1014.4
20210618134904 67 243 0.0 2.0 0.00 0.00 0.00 58 1014.4
20210618134804 67 243 0.0 2.0 0.00 0.00 0.00 59 1014.3
20210618134704 67 243 0.0 2.0 0.00 0.00 0.00 60 1014.4
20210618134603 67 243 0.0 2.0 0.00 0.00 0.00 59 1014.4
20210618134504 67 243 0.0 2.0 0.00 0.00 0.00 59 1014.4
20210618134404 66 243 0.0 2.0 0.00 0.00 0.00 59 1014.4
20210618134304 66 243 0.0 2.0 0.00 0.00 0.00 60 1014.3
20210618134204 66 243 0.0 3.0 0.00 0.00 0.00 61 1014.4
20210618134104 66 243 0.0 3.0 0.00 0.00 0.00 60 1014.4
20210618134004 66 243 0.0 3.0 0.00 0.00 0.00 60 1014.4
20210618133904 66 243 0.0 3.0 0.00 0.00 0.00 61 1014.4
20210618133804 66 243 0.0 3.0 0.00 0.00 0.00 61 1014.4
20210618133704 66 243 0.0 3.0 0.00 0.00 0.00 61 1014.4
20210618133604 65 243 0.0 3.0 0.00 0.00 0.00 60 1014.4
20210618133504 65 243 0.0 3.0 0.00 0.00 0.00 59 1014.4
20210618133404 65 243 0.0 3.0 0.00 0.00 0.00 59 1014.4
20210618133304 65 243 0.0 3.0 0.00 0.00 0.00 60 1014.4
20210618133204 65 243 0.0 2.0 0.00 0.00 0.00 60 1014.4
20210618133104 65 243 0.0 4.0 0.00 0.00 0.00 60 1014.4
20210618133004 65 243 0.0 4.0 0.00 0.00 0.00 61 1014.5
20210618132904 65 243 0.0 4.0 0.00 0.00 0.00 62 1014.4
20210618132803 65 243 0.0 4.0 0.00 0.00 0.00 62 1014.5
20210618132704 65 243 0.0 4.0 0.00 0.00 0.00 62 1014.5
20210618132604 65 243 0.0 4.0 0.00 0.00 0.00 62 1014.5
20210618132504 65 243 0.0 4.0 0.00 0.00 0.00 62 1014.5
20210618132403 64 243 0.0 4.0 0.00 0.00 0.00 62 1014.5
20210618132305 64 243 0.0 4.0 0.00 0.00 0.00 63 1014.5
20210618132204 64 243 0.0 4.0 0.00 0.00 0.00 63 1014.5
20210618132104 64 243 0.0 2.0 0.00 0.00 0.00 64 1014.5
20210618132004 64 243 0.0 2.0 0.00 0.00 0.00 64 1014.5
20210618131904 64 243 0.0 2.0 0.00 0.00 0.00 65 1014.5
20210618131804 64 243 0.0 2.0 0.00 0.00 0.00 66 1014.5
20210618131704 64 243 0.0 2.0 0.00 0.00 0.00 66 1014.5
20210618131604 64 243 0.0 2.0 0.00 0.00 0.00 66 1014.5
20210618131504 63 243 0.0 2.0 0.00 0.00 0.00 67 1014.5
20210618131403 63 243 0.0 2.0 0.00 0.00 0.00 67 1014.5
20210618131304 63 243 0.0 2.0 0.00 0.00 0.00 67 1014.5
20210618131204 63 243 0.0 2.0 0.00 0.00 0.00 67 1014.5
20210618131103 63 243 0.0 1.0 0.00 0.00 0.00 67 1014.4
20210618131004 62 243 0.0 1.0 0.00 0.00 0.00 67 1014.4
20210618130904 62 243 0.0 1.0 0.00 0.00 0.00 68 1014.4
20210618130804 62 243 0.0 2.0 0.00 0.00 0.00 68 1014.4
20210618130704 62 243 0.0 2.0 0.00 0.00 0.00 68 1014.4
20210618130604 62 243 0.0 2.0 0.00 0.00 0.00 68 1014.5
20210618130504 62 243 0.0 2.0 0.00 0.00 0.00 69 1014.4
20210618130404 62 243 0.0 2.0 0.00 0.00 0.00 69 1014.5
20210618130304 62 243 0.0 2.0 0.00 0.00 0.00 69 1014.5
20210618130204 61 243 0.0 2.0 0.00 0.00 0.00 69 1014.4
20210618130103 61 243 0.0 2.0 0.00 0.00 0.00 70 1014.4
20210618130004 61 243 0.0 2.0 0.00 0.00 0.00 70 1014.4
20210618125904 61 243 0.0 2.0 0.00 0.00 0.00 70 1014.5
20210618125804 61 243 0.0 1.0 0.00 0.00 0.00 70 1014.5
20210618125703 61 243 0.0 1.0 0.00 0.00 0.00 70 1014.5
20210618125604 61 0 0.0 0.0 0.00 0.00 0.00 70 1014.5
20210618125504 60 0 0.0 0.0 0.00 0.00 0.00 70 1014.5
20210618125404 60 0 0.0 0.0 0.00 0.00 0.00 70 1014.5
20210618125305 60 0 0.0 0.0 0.00 0.00 0.00 70 1014.5
20210618125204 60 0 0.0 0.0 0.00 0.00 0.00 70 1014.4
20210618125104 60 0 0.0 0.0 0.00 0.00 0.00 70 1014.4
20210618125003 60 0 0.0 0.0 0.00 0.00 0.00 70 1014.4
20210618124904 60 243 0.0 1.0 0.00 0.00 0.00 70 1014.4
20210618124804 60 243 0.0 2.0 0.00 0.00 0.00 71 1014.4
20210618124704 59 243 0.0 2.0 0.00 0.00 0.00 71 1014.4
20210618124604 59 243 0.0 2.0 0.00 0.00 0.00 71 1014.4
20210618124504 59 243 0.0 2.0 0.00 0.00 0.00 71 1014.5
20210618124404 59 243 0.0 2.0 0.00 0.00 0.00 71 1014.5
20210618124304 59 243 0.0 2.0 0.00 0.00 0.00 71 1014.5
20210618124204 59 243 0.0 2.0 0.00 0.00 0.00 71 1014.6
20210618124104 58 243 0.0 2.0 0.00 0.00 0.00 71 1014.6
20210618124004 58 243 0.0 2.0 0.00 0.00 0.00 71 1014.6
20210618123904 58 243 0.0 2.0 0.00 0.00 0.00 71 1014.6
20210618123804 58 243 0.0 2.0 0.00 0.00 0.00 71 1014.6
20210618123704 58 243 0.0 2.0 0.00 0.00 0.00 71 1014.7
20210618123604 58 243 0.0 2.0 0.00 0.00 0.00 72 1014.7
20210618123504 58 243 0.0 2.0 0.00 0.00 0.00 72 1014.7
20210618123404 58 243 0.0 2.0 0.00 0.00 0.00 72 1014.8
20210618123303 58 243 0.0 2.0 0.00 0.00 0.00 72 1014.8
20210618123204 58 243 0.0 2.0 0.00 0.00 0.00 72 1014.8
20210618123104 57 243 1.0 3.0 0.00 0.00 0.00 73 1014.9
20210618123003 57 243 1.0 4.0 0.00 0.00 0.00 73 1014.9
20210618122904 57 243 1.0 4.0 0.00 0.00 0.00 73 1014.9
20210618122804 57 243 1.0 4.0 0.00 0.00 0.00 73 1014.9
20210618122704 57 243 0.0 4.0 0.00 0.00 0.00 73 1014.9
20210618122604 57 243 0.0 4.0 0.00 0.00 0.00 73 1014.9
20210618122504 56 243 0.0 4.0 0.00 0.00 0.00 74 1014.9
20210618122404 56 243 0.0 4.0 0.00 0.00 0.00 74 1014.9
20210618122305 56 243 0.0 4.0 0.00 0.00 0.00 74 1014.9
20210618122204 56 243 0.0 4.0 0.00 0.00 0.00 75 1014.9
20210618122103 56 243 0.0 4.0 0.00 0.00 0.00 75 1014.9
20210618122004 56 243 0.0 2.0 0.00 0.00 0.00 76 1014.9
20210618121904 56 243 0.0 2.0 0.00 0.00 0.00 77 1014.9
20210618121804 56 243 0.0 1.0 0.00 0.00 0.00 76 1014.9
20210618121704 56 243 0.0 1.0 0.00 0.00 0.00 77 1014.8
20210618121603 55 243 0.0 1.0 0.00 0.00 0.00 77 1014.9
20210618121504 55 243 0.0 2.0 0.00 0.00 0.00 77 1014.8
20210618121404 55 243 0.0 2.0 0.00 0.00 0.00 78 1014.8
20210618121304 55 243 0.0 2.0 0.00 0.00 0.00 77 1014.8
20210618121204 55 243 0.0 2.0 0.00 0.00 0.00 77 1014.9
20210618121104 55 243 0.0 2.0 0.00 0.00 0.00 77 1014.9
20210618121004 55 243 0.0 2.0 0.00 0.00 0.00 77 1014.8
20210618120903 55 243 0.0 2.0 0.00 0.00 0.00 77 1014.8
20210618120804 55 243 0.0 2.0 0.00 0.00 0.00 77 1014.8
20210618120704 54 243 0.0 2.0 0.00 0.00 0.00 77 1014.7
20210618120604 54 243 0.0 2.0 0.00 0.00 0.00 77 1014.8
20210618120503 54 243 0.0 2.0 0.00 0.00 0.00 77 1014.8
20210618120404 54 243 0.0 2.0 0.00 0.00 0.00 77 1014.8
20210618120304 54 243 0.0 2.0 0.00 0.00 0.00 77 1014.8
20210618120204 54 243 0.0 3.0 0.00 0.00 0.00 77 1014.9
20210618120104 54 243 0.0 4.0 0.00 0.00 0.00 77 1014.9
20210618120004 54 243 0.0 4.0 0.00 0.00 0.00 77 1014.8
20210618115903 54 243 0.0 4.0 0.00 0.00 0.00 77 1014.8
20210618115804 54 243 0.0 4.0 0.00 0.00 0.00 77 1014.9
20210618115704 54 243 0.0 4.0 0.00 0.00 0.00 77 1014.8
20210618115603 54 243 0.0 4.0 0.00 0.00 0.00 78 1014.8
20210618115504 54 243 0.0 4.0 0.00 0.00 0.00 78 1014.8
20210618115404 54 243 0.0 4.0 0.00 0.00 0.00 78 1014.9
20210618115306 53 243 0.0 4.0 0.00 0.00 0.00 78 1014.9
20210618115204 53 243 0.0 4.0 0.00 0.00 0.00 78 1014.9
20210618115104 53 243 0.0 3.0 0.00 0.00 0.00 78 1014.9
20210618115004 53 243 0.0 3.0 0.00 0.00 0.00 78 1014.9
20210618114904 53 243 0.0 3.0 0.00 0.00 0.00 78 1015.0
20210618114804 53 243 0.0 3.0 0.00 0.00 0.00 78 1015.0
20210618114704 53 243 0.0 3.0 0.00 0.00 0.00 78 1015.0
20210618114604 53 243 0.0 4.0 0.00 0.00 0.00 78 1015.0
20210618114504 53 243 1.0 4.0 0.00 0.00 0.00 78 1015.0
20210618114404 53 243 1.0 4.0 0.00 0.00 0.00 78 1015.0
20210618114304 53 243 1.0 4.0 0.00 0.00 0.00 79 1015.0
20210618114203 53 244 1.0 6.0 0.00 0.00 0.00 79 1015.1
20210618114104 53 244 1.0 6.0 0.00 0.00 0.00 79 1015.1
20210618114004 52 244 1.0 6.0 0.00 0.00 0.00 79 1015.0
20210618113904 52 244 1.0 6.0 0.00 0.00 0.00 79 1015.1
20210618113804 52 244 1.0 6.0 0.00 0.00 0.00 79 1015.2
20210618113704 52 244 1.0 6.0 0.00 0.00 0.00 79 1015.2
20210618113604 52 244 1.0 6.0 0.00 0.00 0.00 79 1015.2
20210618113503 52 244 1.0 6.0 0.00 0.00 0.00 79 1015.3
20210618113404 52 244 1.0 6.0 0.00 0.00 0.00 79 1015.3
20210618113304 52 244 1.0 6.0 0.00 0.00 0.00 79 1015.3
20210618113203 52 244 1.0 6.0 0.00 0.00 0.00 79 1015.4
20210618113104 52 244 1.0 6.0 0.00 0.00 0.00 79 1015.4
20210618113004 52 244 1.0 6.0 0.00 0.00 0.00 80 1015.4
20210618112904 52 244 1.0 6.0 0.00 0.00 0.00 80 1015.4
20210618112804 52 245 1.0 6.0 0.00 0.00 0.00 80 1015.5
20210618112704 52 244 1.0 6.0 0.00 0.00 0.00 80 1015.5
20210618112604 52 244 1.0 6.0 0.00 0.00 0.00 80 1015.5
20210618112504 52 245 1.0 6.0 0.00 0.00 0.00 80 1015.5
20210618112403 52 245 1.0 6.0 0.00 0.00 0.00 80 1015.5
20210618112305 52 245 1.0 5.0 0.00 0.00 0.00 80 1015.5
20210618112204 52 245 1.0 5.0 0.00 0.00 0.00 80 1015.5
20210618112104 52 245 1.0 5.0 0.00 0.00 0.00 81 1015.6
20210618112004 52 245 1.0 5.0 0.00 0.00 0.00 81 1015.6
20210618111904 52 245 1.0 4.0 0.00 0.00 0.00 81 1015.6
20210618111804 51 245 1.0 4.0 0.00 0.00 0.00 81 1015.6
20210618111704 51 245 1.0 4.0 0.00 0.00 0.00 81 1015.6
20210618111604 51 245 1.0 4.0 0.00 0.00 0.00 81 1015.6
20210618111504 51 245 1.0 4.0 0.00 0.00 0.00 81 1015.5
20210618111404 51 245 1.0 4.0 0.00 0.00 0.00 81 1015.5
20210618111304 51 245 1.0 4.0 0.00 0.00 0.00 81 1015.5
20210618111204 51 245 1.0 4.0 0.00 0.00 0.00 81 1015.5
20210618111104 51 245 1.0 4.0 0.00 0.00 0.00 81 1015.5
20210618111004 51 245 0.0 4.0 0.00 0.00 0.00 82 1015.5
20210618110904 51 244 0.0 4.0 0.00 0.00 0.00 82 1015.5
20210618110804 51 245 0.0 4.0 0.00 0.00 0.00 82 1015.6
20210618110704 51 244 0.0 4.0 0.00 0.00 0.00 82 1015.6
20210618110604 50 244 0.0 3.0 0.00 0.00 0.00 82 1015.6
20210618110504 50 244 0.0 3.0 0.00 0.00 0.00 82 1015.6
20210618110404 50 244 0.0 3.0 0.00 0.00 0.00 82 1015.6
20210618110304 50 245 0.0 3.0 0.00 0.00 0.00 82 1015.6
20210618110203 50 245 0.0 3.0 0.00 0.00 0.00 82 1015.6
20210618110104 50 245 0.0 3.0 0.00 0.00 0.00 82 1015.6
20210618110004 50 245 0.0 3.0 0.00 0.00 0.00 82 1015.6
20210618105904 50 245 0.0 3.0 0.00 0.00 0.00 82 1015.6
20210618105804 50 245 0.0 3.0 0.00 0.00 0.00 82 1015.6
20210618105704 50 245 0.0 3.0 0.00 0.00 0.00 82 1015.6
20210618105604 50 244 0.0 4.0 0.00 0.00 0.00 82 1015.6
20210618105504 50 248 0.0 7.0 0.00 0.00 0.00 82 1015.6
20210618105404 50 250 0.0 7.0 0.00 0.00 0.00 82 1015.6
20210618105306 50 252 1.0 7.0 0.00 0.00 0.00 82 1015.6
20210618105204 50 255 1.0 7.0 0.00 0.00 0.00 82 1015.6
20210618105104 50 255 1.0 7.0 0.00 0.00 0.00 82 1015.6
20210618105004 50 255 1.0 7.0 0.00 0.00 0.00 82 1015.5
20210618104904 50 257 1.0 7.0 0.00 0.00 0.00 82 1015.6
20210618104804 50 258 1.0 7.0 0.00 0.00 0.00 82 1015.6
20210618104704 50 259 1.0 7.0 0.00 0.00 0.00 82 1015.6
20210618104604 50 261 1.0 7.0 0.00 0.00 0.00 82 1015.7
20210618104504 50 264 1.0 5.0 0.00 0.00 0.00 82 1015.7
20210618104404 50 264 1.0 5.0 0.00 0.00 0.00 82 1015.7
20210618104304 50 264 1.0 5.0 0.00 0.00 0.00 82 1015.8
20210618104204 50 264 1.0 5.0 0.00 0.00 0.00 82 1015.8
20210618104104 50 264 1.0 5.0 0.00 0.00 0.00 82 1015.8
20210618104004 50 264 1.0 5.0 0.00 0.00 0.00 83 1015.8
20210618103904 50 264 1.0 5.0 0.00 0.00 0.00 83 1015.8
20210618103804 50 264 1.0 5.0 0.00 0.00 0.00 83 1015.8
20210618103704 50 264 1.0 5.0 0.00 0.00 0.00 83 1015.8
20210618103604 50 264 1.0 5.0 0.00 0.00 0.00 83 1015.8
20210618103504 50 264 0.0 5.0 0.00 0.00 0.00 83 1015.8
20210618103404 50 264 0.0 5.0 0.00 0.00 0.00 83 1015.8
20210618103304 50 264 0.0 5.0 0.00 0.00 0.00 83 1015.8
20210618103204 50 264 0.0 5.0 0.00 0.00 0.00 83 1015.8
20210618103104 50 264 0.0 5.0 0.00 0.00 0.00 83 1015.8
20210618103004 50 264 0.0 5.0 0.00 0.00 0.00 83 1015.8
20210618102904 50 264 0.0 5.0 0.00 0.00 0.00 83 1015.7
20210618102804 50 264 0.0 3.0 0.00 0.00 0.00 83 1015.7
20210618102704 49 264 0.0 3.0 0.00 0.00 0.00 83 1015.7
20210618102604 49 264 0.0 3.0 0.00 0.00 0.00 83 1015.7
20210618102504 49 264 0.0 3.0 0.00 0.00 0.00 83 1015.8
20210618102404 49 264 0.0 4.0 0.00 0.00 0.00 83 1015.8
20210618102305 49 264 0.0 4.0 0.00 0.00 0.00 83 1015.8
20210618102204 49 264 0.0 4.0 0.00 0.00 0.00 83 1015.8
20210618102104 49 264 0.0 4.0 0.00 0.00 0.00 83 1015.8
20210618102004 49 264 1.0 4.0 0.00 0.00 0.00 83 1015.8
20210618101904 49 264 1.0 4.0 0.00 0.00 0.00 83 1015.8
20210618101804 49 264 1.0 4.0 0.00 0.00 0.00 83 1015.8
20210618101704 49 264 1.0 4.0 0.00 0.00 0.00 83 1015.8
20210618101604 49 264 1.0 4.0 0.00 0.00 0.00 83 1015.8
20210618101504 49 264 1.0 4.0 0.00 0.00 0.00 83 1015.8
20210618101404 49 264 1.0 4.0 0.00 0.00 0.00 83 1015.8
20210618101304 49 264 1.0 4.0 0.00 0.00 0.00 82 1015.8
20210618101204 49 264 1.0 4.0 0.00 0.00 0.00 82 1015.8
20210618101103 49 264 1.0 4.0 0.00 0.00 0.00 82 1015.8
20210618101004 49 264 0.0 4.0 0.00 0.00 0.00 82 1015.8
20210618100904 49 264 0.0 4.0 0.00 0.00 0.00 82 1015.8
20210618100804 49 264 0.0 4.0 0.00 0.00 0.00 82 1015.8
20210618100704 49 264 0.0 4.0 0.00 0.00 0.00 82 1015.8
20210618100604 49 265 0.0 4.0 0.00 0.00 0.00 82 1015.8
20210618100504 49 265 0.0 1.0 0.00 0.00 0.00 82 1015.8
20210618100404 49 265 0.0 1.0 0.00 0.00 0.00 82 1015.8
20210618100304 49 265 0.0 1.0 0.00 0.00 0.00 82 1015.8
20210618100203 49 266 0.0 1.0 0.00 0.00 0.00 82 1015.8
20210618100104 49 266 0.0 1.0 0.00 0.00 0.00 82 1015.8
20210618100004 49 266 0.0 1.0 0.00 0.00 0.00 82 1015.8
20210618095904 49 266 0.0 1.0 0.00 0.00 0.00 82 1015.8
20210618095804 50 266 0.0 1.0 0.00 0.00 0.00 82 1015.8
20210618095704 50 266 0.0 1.0 0.00 0.00 0.00 82 1015.8
20210618095604 50 266 0.0 1.0 0.00 0.00 0.00 81 1015.8
20210618095504 50 266 0.0 1.0 0.00 0.00 0.00 81 1015.8
20210618095404 50 266 0.0 1.0 0.00 0.00 0.00 81 1015.7
20210618095305 50 266 0.0 1.0 0.00 0.00 0.00 81 1015.7
20210618095204 50 266 0.0 1.0 0.00 0.00 0.00 81 1015.7
20210618095104 50 265 0.0 3.0 0.00 0.00 0.00 81 1015.7
20210618095004 50 265 0.0 3.0 0.00 0.00 0.00 81 1015.7
20210618094904 50 265 0.0 3.0 0.00 0.00 0.00 81 1015.6
20210618094804 50 265 0.0 3.0 0.00 0.00 0.00 81 1015.6
20210618094704 50 265 0.0 3.0 0.00 0.00 0.00 81 1015.6
20210618094604 50 265 0.0 3.0 0.00 0.00 0.00 81 1015.6
20210618094504 50 265 0.0 3.0 0.00 0.00 0.00 81 1015.6
20210618094404 50 265 0.0 3.0 0.00 0.00 0.00 81 1015.5
20210618094304 50 265 0.0 3.0 0.00 0.00 0.00 81 1015.5
20210618094204 50 265 0.0 3.0 0.00 0.00 0.00 81 1015.5
20210618094104 50 265 0.0 3.0 0.00 0.00 0.00 81 1015.5
20210618094004 50 266 0.0 3.0 0.00 0.00 0.00 81 1015.5
20210618093904 50 266 0.0 3.0 0.00 0.00 0.00 81 1015.5
20210618093803 50 266 0.0 3.0 0.00 0.00 0.00 81 1015.5
20210618093704 50 266 0.0 3.0 0.00 0.00 0.00 81 1015.5
20210618093604 50 265 0.0 3.0 0.00 0.00 0.00 81 1015.5
20210618093504 50 266 0.0 3.0 0.00 0.00 0.00 81 1015.5
20210618093404 50 265 0.0 3.0 0.00 0.00 0.00 81 1015.6
20210618093304 50 266 0.0 5.0 0.00 0.00 0.00 81 1015.6
20210618093204 50 266 0.0 5.0 0.00 0.00 0.00 81 1015.6
20210618093104 50 266 0.0 5.0 0.00 0.00 0.00 81 1015.6
20210618093004 50 266 1.0 5.0 0.00 0.00 0.00 81 1015.6
20210618092904 50 266 1.0 5.0 0.00 0.00 0.00 81 1015.6
20210618092804 50 266 1.0 5.0 0.00 0.00 0.00 81 1015.6
20210618092703 50 266 1.0 5.0 0.00 0.00 0.00 81 1015.6
20210618092604 50 266 1.0 5.0 0.00 0.00 0.00 81 1015.6
20210618092504 50 266 1.0 5.0 0.00 0.00 0.00 81 1015.6
20210618092404 50 266 1.0 5.0 0.00 0.00 0.00 81 1015.6
20210618092305 50 265 1.0 4.0 0.00 0.00 0.00 81 1015.6
20210618092204 50 265 1.0 4.0 0.00 0.00 0.00 81 1015.6
20210618092104 50 265 1.0 4.0 0.00 0.00 0.00 81 1015.6
20210618092004 50 265 1.0 4.0 0.00 0.00 0.00 81 1015.5
20210618091904 50 265 1.0 4.0 0.00 0.00 0.00 81 1015.5
20210618091804 50 266 1.0 5.0 0.00 0.00 0.00 81 1015.5
20210618091704 50 267 1.0 5.0 0.00 0.00 0.00 81 1015.5
20210618091604 50 268 1.0 5.0 0.00 0.00 0.00 81 1015.6
20210618091504 50 269 1.0 6.0 0.00 0.00 0.00 81 1015.6
20210618091404 50 270 1.0 6.0 0.00 0.00 0.00 81 1015.6
20210618091304 50 270 1.0 6.0 0.00 0.00 0.00 81 1015.6
20210618091203 50 270 1.0 6.0 0.00 0.00 0.00 81 1015.6
20210618091104 50 270 1.0 6.0 0.00 0.00 0.00 81 1015.7
20210618091004 50 270 1.0 6.0 0.00 0.00 0.00 81 1015.7
20210618090904 50 271 1.0 6.0 0.00 0.00 0.00 81 1015.7
20210618090804 50 271 1.0 6.0 0.00 0.00 0.00 81 1015.6
20210618090704 50 271 1.0 6.0 0.00 0.00 0.00 81 1015.7
20210618090604 50 271 1.0 6.0 0.00 0.00 0.00 81 1015.7
20210618090504 50 271 1.0 5.0 0.00 0.00 0.00 81 1015.6
20210618090404 50 271 1.0 5.0 0.00 0.00 0.00 81 1015.7
20210618090304 50 271 1.0 5.0 0.00 0.00 0.00 81 1015.6
20210618090204 50 271 1.0 5.0 0.00 0.00 0.00 81 1015.6
20210618090104 50 271 1.0 5.0 0.00 0.00 0.00 81 1015.6
20210618090004 50 271 0.0 5.0 0.00 0.00 0.00 81 1015.6
20210618085904 50 271 0.0 5.0 0.00 0.00 0.00 81 1015.6
20210618085804 50 271 0.0 5.0 0.00 0.00 0.00 81 1015.6
20210618085704 50 271 0.0 5.0 0.00 0.00 0.00 81 1015.5
20210618085604 50 271 0.0 3.0 0.00 0.00 0.00 81 1015.6
20210618085504 50 271 0.0 3.0 0.00 0.00 0.00 81 1015.5
20210618085404 50 271 1.0 3.0 0.00 0.00 0.00 81 1015.5
20210618085306 50 271 1.0 3.0 0.00 0.00 0.00 81 1015.5
20210618085204 50 271 1.0 3.0 0.00 0.00 0.00 81 1015.5
20210618085104 50 271 1.0 3.0 0.00 0.00 0.00 81 1015.5
20210618085004 50 272 1.0 8.0 0.00 0.00 0.00 81 1015.5
20210618084904 50 272 1.0 8.0 0.00 0.00 0.00 81 1015.6
20210618084804 50 272 1.0 8.0 0.00 0.00 0.00 80 1015.6
20210618084704 50 272 1.0 8.0 0.00 0.00 0.00 80 1015.6
20210618084604 50 272 1.0 8.0 0.00 0.00 0.00 81 1015.6
20210618084504 50 272 1.0 8.0 0.00 0.00 0.00 81 1015.5
20210618084404 50 272 1.0 8.0 0.00 0.00 0.00 81 1015.6
20210618084304 50 272 1.0 8.0 0.00 0.00 0.00 80 1015.6
20210618084204 50 272 1.0 8.0 0.00 0.00 0.00 80 1015.6
20210618084104 50 272 1.0 8.0 0.00 0.00 0.00 80 1015.6
20210618084004 50 273 1.0 6.0 0.00 0.00 0.00 80 1015.6
20210618083904 50 273 1.0 7.0 0.00 0.00 0.00 80 1015.5
20210618083804 50 273 1.0 7.0 0.00 0.00 0.00 80 1015.5
20210618083704 50 273 1.0 7.0 0.00 0.00 0.00 80 1015.5
20210618083604 50 273 1.0 7.0 0.00 0.00 0.00 80 1015.5
20210618083504 50 273 1.0 7.0 0.00 0.00 0.00 80 1015.5
20210618083404 50 273 1.0 7.0 0.00 0.00 0.00 80 1015.5
20210618083304 50 273 1.0 7.0 0.00 0.00 0.00 80 1015.5
20210618083204 50 273 1.0 7.0 0.00 0.00 0.00 80 1015.5
20210618083103 50 273 1.0 7.0 0.00 0.00 0.00 80 1015.5
20210618083004 50 273 1.0 7.0 0.00 0.00 0.00 80 1015.5
20210618082904 50 274 1.0 6.0 0.00 0.00 0.00 80 1015.4
20210618082804 50 274 1.0 6.0 0.00 0.00 0.00 80 1015.4
20210618082704 50 275 1.0 6.0 0.00 0.00 0.00 80 1015.4
20210618082604 50 275 1.0 6.0 0.00 0.00 0.00 80 1015.4
20210618082504 50 275 1.0 6.0 0.00 0.00 0.00 80 1015.4
20210618082404 50 275 2.0 6.0 0.00 0.00 0.00 80 1015.3
20210618082306 50 275 2.0 6.0 0.00 0.00 0.00 80 1015.3
20210618082204 50 276 2.0 6.0 0.00 0.00 0.00 80 1015.2
20210618082103 50 276 2.0 9.0 0.00 0.00 0.00 80 1015.2
20210618082004 50 276 2.0 9.0 0.00 0.00 0.00 80 1015.2
20210618081903 50 276 1.0 9.0 0.00 0.00 0.00 80 1015.2
20210618081804 50 276 1.0 9.0 0.00 0.00 0.00 80 1015.2
20210618081704 50 276 1.0 9.0 0.00 0.00 0.00 80 1015.2
20210618081604 50 276 2.0 9.0 0.00 0.00 0.00 80 1015.2
20210618081504 50 276 1.0 9.0 0.00 0.00 0.00 80 1015.2
20210618081404 50 276 1.0 9.0 0.00 0.00 0.00 80 1015.2
20210618081304 50 276 1.0 9.0 0.00 0.00 0.00 80 1015.2
20210618081204 50 276 1.0 9.0 0.00 0.00 0.00 80 1015.2
20210618081104 50 276 1.0 7.0 0.00 0.00 0.00 80 1015.2
20210618081004 50 276 1.0 6.0 0.00 0.00 0.00 80 1015.2
20210618080904 51 276 1.0 6.0 0.00 0.00 0.00 80 1015.3
20210618080804 51 276 1.0 6.0 0.00 0.00 0.00 80 1015.3
20210618080704 51 276 1.0 6.0 0.00 0.00 0.00 80 1015.3
20210618080604 51 276 1.0 5.0 0.00 0.00 0.00 80 1015.3
20210618080504 51 276 1.0 5.0 0.00 0.00 0.00 80 1015.3
20210618080404 51 276 1.0 5.0 0.00 0.00 0.00 80 1015.3
20210618080303 51 276 1.0 5.0 0.00 0.00 0.00 80 1015.3
20210618080204 51 276 1.0 5.0 0.00 0.00 0.00 80 1015.3
20210618080103 51 276 1.0 4.0 0.00 0.00 0.00 80 1015.3
20210618080004 51 276 1.0 4.0 0.00 0.00 0.00 80 1015.2
20210618075904 51 276 1.0 4.0 0.00 0.00 0.00 80 1015.2
20210618075804 51 276 1.0 6.0 0.00 0.00 0.00 80 1015.2
20210618075704 51 276 1.0 6.0 0.00 0.00 0.00 80 1015.2
20210618075604 51 276 1.0 6.0 0.00 0.00 0.00 79 1015.2
20210618075504 51 276 1.0 6.0 0.00 0.00 0.00 79 1015.2
20210618075403 51 276 1.0 6.0 0.00 0.00 0.00 79 1015.2
20210618075305 51 276 1.0 6.0 0.00 0.00 0.00 79 1015.2
20210618075204 51 276 1.0 6.0 0.00 0.00 0.00 79 1015.2
20210618075104 51 276 1.0 6.0 0.00 0.00 0.00 79 1015.2
20210618075004 51 276 1.0 6.0 0.00 0.00 0.00 79 1015.2
20210618074903 51 277 1.0 6.0 0.00 0.00 0.00 79 1015.2
20210618074804 51 277 1.0 6.0 0.00 0.00 0.00 79 1015.2
20210618074704 51 277 1.0 6.0 0.00 0.00 0.00 79 1015.2
20210618074603 51 277 1.0 6.0 0.00 0.00 0.00 79 1015.1
20210618074504 51 277 1.0 6.0 0.00 0.00 0.00 79 1015.1
20210618074404 51 277 1.0 6.0 0.00 0.00 0.00 79 1015.2
20210618074304 51 277 1.0 6.0 0.00 0.00 0.00 79 1015.2
20210618074204 51 277 1.0 6.0 0.00 0.00 0.00 79 1015.2
20210618074103 51 277 1.0 6.0 0.00 0.00 0.00 79 1015.2
20210618074004 51 277 0.0 6.0 0.00 0.00 0.00 79 1015.2
20210618073903 51 278 0.0 5.0 0.00 0.00 0.00 79 1015.2
20210618073804 51 278 0.0 5.0 0.00 0.00 0.00 79 1015.2
20210618073704 51 278 0.0 5.0 0.00 0.00 0.00 79 1015.2
20210618073603 51 278 0.0 5.0 0.00 0.00 0.00 79 1015.2
20210618073504 51 278 0.0 5.0 0.00 0.00 0.00 79 1015.2
20210618073404 51 278 0.0 5.0 0.00 0.00 0.00 79 1015.2
20210618073304 51 278 0.0 3.0 0.00 0.00 0.00 79 1015.2
20210618073204 51 278 0.0 3.0 0.00 0.00 0.00 79 1015.2
20210618073104 51 278 0.0 4.0 0.00 0.00 0.00 78 1015.2
20210618073004 51 278 0.0 4.0 0.00 0.00 0.00 78 1015.2
20210618072903 51 278 0.0 4.0 0.00 0.00 0.00 78 1015.2
20210618072804 51 278 0.0 4.0 0.00 0.00 0.00 78 1015.2
20210618072704 51 278 0.0 4.0 0.00 0.00 0.00 78 1015.2
20210618072604 51 278 0.0 4.0 0.00 0.00 0.00 78 1015.2
20210618072504 51 278 0.0 4.0 0.00 0.00 0.00 78 1015.2
20210618072404 51 278 0.0 4.0 0.00 0.00 0.00 78 1015.2
20210618072305 51 278 0.0 4.0 0.00 0.00 0.00 78 1015.2
20210618072204 51 278 0.0 4.0 0.00 0.00 0.00 78 1015.2
20210618072104 51 278 0.0 3.0 0.00 0.00 0.00 78 1015.2
20210618072003 51 278 0.0 3.0 0.00 0.00 0.00 78 1015.2
20210618071904 51 278 0.0 3.0 0.00 0.00 0.00 78 1015.1
20210618071804 52 278 0.0 3.0 0.00 0.00 0.00 78 1015.1
20210618071704 52 278 0.0 3.0 0.00 0.00 0.00 78 1015.1
20210618071604 52 278 0.0 2.0 0.00 0.00 0.00 78 1015.1
20210618071503 52 278 0.0 2.0 0.00 0.00 0.00 78 1015.0
20210618071404 52 278 1.0 6.0 0.00 0.00 0.00 78 1015.0
20210618071304 52 278 1.0 6.0 0.00 0.00 0.00 78 1015.0
20210618071204 52 278 1.0 6.0 0.00 0.00 0.00 78 1015.1
20210618071104 52 278 1.0 6.0 0.00 0.00 0.00 78 1015.1
20210618071004 52 278 1.0 6.0 0.00 0.00 0.00 78 1015.1
20210618070904 52 278 1.0 6.0 0.00 0.00 0.00 78 1015.1
20210618070804 52 278 1.0 6.0 0.00 0.00 0.00 78 1015.1
20210618070704 52 278 1.0 6.0 0.00 0.00 0.00 78 1015.1
20210618070604 52 278 1.0 6.0 0.00 0.00 0.00 78 1015.1
20210618070504 52 278 1.0 6.0 0.00 0.00 0.00 78 1015.1
20210618070404 52 278 1.0 6.0 0.00 0.00 0.00 78 1015.1
20210618070304 52 279 1.0 6.0 0.00 0.00 0.00 78 1015.1
20210618070203 52 280 1.0 6.0 0.00 0.00 0.00 78 1015.1
20210618070104 52 281 2.0 6.0 0.00 0.00 0.00 78 1015.1
20210618070004 52 281 2.0 6.0 0.00 0.00 0.00 78 1015.1
20210618065903 52 282 2.0 6.0 0.00 0.00 0.00 78 1015.2
20210618065804 52 283 2.0 6.0 0.00 0.00 0.00 78 1015.1
20210618065704 52 284 2.0 6.0 0.00 0.00 0.00 78 1015.1
20210618065604 52 286 2.0 6.0 0.00 0.00 0.00 78 1015.1
20210618065504 52 287 2.0 6.0 0.00 0.00 0.00 78 1015.1
20210618065404 52 288 2.0 5.0 0.00 0.00 0.00 78 1015.1
20210618065305 52 289 2.0 5.0 0.00 0.00 0.00 78 1015.1
20210618065203 52 290 2.0 5.0 0.00 0.00 0.00 78 1015.1
20210618065104 52 290 2.0 5.0 0.00 0.00 0.00 78 1015.1
20210618065004 52 290 2.0 5.0 0.00 0.00 0.00 78 1015.2
20210618064904 52 291 1.0 5.0 0.00 0.00 0.00 78 1015.2
20210618064804 52 292 1.0 4.0 0.00 0.00 0.00 78 1015.1
20210618064704 52 292 1.0 4.0 0.00 0.00 0.00 78 1015.2
20210618064605 52 293 1.0 4.0 0.00 0.00 0.00 78 1015.1
20210618064504 52 293 1.0 4.0 0.00 0.00 0.00 78 1015.1
20210618064403 52 293 1.0 4.0 0.00 0.00 0.00 77 1015.1
20210618064304 52 293 0.0 4.0 0.00 0.00 0.00 77 1015.1
20210618064203 52 292 0.0 4.0 0.00 0.00 0.00 77 1015.1
20210618064104 52 293 0.0 4.0 0.00 0.00 0.00 77 1015.1
20210618064003 52 293 0.0 4.0 0.00 0.00 0.00 77 1015.1
20210618063904 52 292 0.0 3.0 0.00 0.00 0.00 77 1015.1
20210618063804 52 293 0.0 3.0 0.00 0.00 0.00 77 1015.1
20210618063704 52 293 0.0 1.0 0.00 0.00 0.00 77 1015.1
20210618063604 52 293 0.0 1.0 0.00 0.00 0.00 77 1015.0
20210618063504 52 293 0.0 1.0 0.00 0.00 0.00 77 1015.1
20210618063404 52 293 0.0 3.0 0.00 0.00 0.00 77 1015.1
20210618063304 52 292 0.0 4.0 0.00 0.00 0.00 77 1015.1
20210618063203 52 292 0.0 4.0 0.00 0.00 0.00 77 1015.1
20210618063104 52 293 0.0 4.0 0.00 0.00 0.00 77 1015.1
20210618063003 52 293 0.0 4.0 0.00 0.00 0.00 77 1015.1
20210618062904 53 293 0.0 4.0 0.00 0.00 0.00 77 1015.1
20210618062804 53 293 0.0 4.0 0.00 0.00 0.00 77 1015.1
20210618062704 53 293 0.0 4.0 0.00 0.00 0.00 77 1015.1
20210618062604 53 293 0.0 4.0 0.00 0.00 0.00 77 1015.1
20210618062504 53 293 0.0 4.0 0.00 0.00 0.00 77 1015.1
20210618062403 53 293 0.0 4.0 0.00 0.00 0.00 77 1015.1
20210618062305 53 293 0.0 3.0 0.00 0.00 0.00 77 1015.1
20210618062204 53 293 0.0 3.0 0.00 0.00 0.00 77 1015.1
20210618062104 53 293 0.0 3.0 0.00 0.00 0.00 77 1015.1
20210618062004 53 293 0.0 3.0 0.00 0.00 0.00 77 1015.0
20210618061904 53 293 0.0 3.0 0.00 0.00 0.00 76 1015.0
20210618061803 53 293 1.0 4.0 0.00 0.00 0.00 76 1015.0
20210618061704 53 293 1.0 4.0 0.00 0.00 0.00 76 1015.0
20210618061604 53 293 0.0 4.0 0.00 0.00 0.00 76 1015.0
20210618061504 53 293 0.0 4.0 0.00 0.00 0.00 76 1015.1
20210618061404 53 293 0.0 4.0 0.00 0.00 0.00 76 1015.1
20210618061304 53 293 0.0 4.0 0.00 0.00 0.00 76 1015.0
20210618061204 53 293 0.0 4.0 0.00 0.00 0.00 76 1015.1
20210618061104 53 293 0.0 4.0 0.00 0.00 0.00 76 1015.1
20210618061004 53 293 0.0 4.0 0.00 0.00 0.00 76 1015.1
20210618060904 53 293 0.0 4.0 0.00 0.00 0.00 75 1015.1
20210618060804 53 294 0.0 2.0 0.00 0.00 0.00 75 1015.1
20210618060704 53 294 0.0 2.0 0.00 0.00 0.00 75 1015.0
20210618060603 53 294 0.0 2.0 0.00 0.00 0.00 76 1015.0
20210618060504 53 294 0.0 3.0 0.00 0.00 0.00 76 1015.0
20210618060405 53 294 0.0 3.0 0.00 0.00 0.00 76 1015.0
20210618060303 53 293 0.0 3.0 0.00 0.00 0.00 76 1015.1
20210618060204 53 294 0.0 3.0 0.00 0.00 0.00 76 1015.0
20210618060104 53 293 0.0 3.0 0.00 0.00 0.00 76 1015.0
20210618060004 53 293 0.0 3.0 0.00 0.00 0.00 76 1015.0
20210618055904 53 293 0.0 3.0 0.00 0.00 0.00 76 1015.0
20210618055803 53 293 0.0 3.0 0.00 0.00 0.00 76 1015.0
20210618055704 53 293 0.0 3.0 0.00 0.00 0.00 76 1015.0
20210618055604 53 294 0.0 3.0 0.00 0.00 0.00 76 1015.0
20210618055503 53 293 0.0 3.0 0.00 0.00 0.00 76 1015.0
20210618055404 53 294 0.0 3.0 0.00 0.00 0.00 76 1015.0
20210618055305 53 294 0.0 3.0 0.00 0.00 0.00 76 1015.0
20210618055204 53 294 0.0 3.0 0.00 0.00 0.00 76 1015.0
20210618055104 53 294 0.0 3.0 0.00 0.00 0.00 76 1015.0
20210618055003 53 294 0.0 3.0 0.00 0.00 0.00 76 1015.0
20210618054904 53 294 0.0 3.0 0.00 0.00 0.00 76 1015.0
20210618054804 53 294 0.0 3.0 0.00 0.00 0.00 76 1015.0
20210618054704 53 294 0.0 3.0 0.00 0.00 0.00 76 1015.0
20210618054604 53 294 0.0 2.0 0.00 0.00 0.00 76 1015.0
20210618054504 53 294 0.0 2.0 0.00 0.00 0.00 76 1015.0
20210618054404 53 293 1.0 2.0 0.00 0.00 0.00 76 1015.1
20210618054303 53 294 1.0 3.0 0.00 0.00 0.00 76 1015.1
20210618054204 53 294 1.0 3.0 0.00 0.00 0.00 76 1015.1
20210618054104 53 294 1.0 3.0 0.00 0.00 0.00 77 1015.1
20210618054004 53 294 1.0 4.0 0.00 0.00 0.00 77 1015.1
20210618053904 53 294 1.0 4.0 0.00 0.00 0.00 77 1015.1
20210618053804 53 294 1.0 4.0 0.00 0.00 0.00 77 1015.1
20210618053704 53 294 1.0 4.0 0.00 0.00 0.00 77 1015.1
20210618053603 53 294 0.0 4.0 0.00 0.00 0.00 77 1015.1
20210618053504 53 294 0.0 4.0 0.00 0.00 0.00 76 1015.1
20210618053404 54 293 0.0 4.0 0.00 0.00 0.00 77 1015.1
20210618053304 54 293 0.0 4.0 0.00 0.00 0.00 76 1015.1
20210618053204 54 293 0.0 4.0 0.00 0.00 0.00 76 1015.1
20210618053104 54 293 0.0 4.0 0.00 0.00 0.00 76 1015.1
20210618053004 54 293 0.0 2.0 0.00 0.00 0.00 76 1015.1
20210618052904 54 293 0.0 2.0 0.00 0.00 0.00 76 1015.1
20210618052804 54 293 0.0 2.0 0.00 0.00 0.00 76 1015.1
20210618052703 54 294 0.0 1.0 0.00 0.00 0.00 76 1015.1
20210618052604 54 294 0.0 1.0 0.00 0.00 0.00 76 1015.1
20210618052503 54 294 0.0 1.0 0.00 0.00 0.00 76 1015.1
20210618052403 54 294 0.0 1.0 0.00 0.00 0.00 75 1015.1
20210618052305 54 0 0.0 0.0 0.00 0.00 0.00 75 1015.2
20210618052203 54 0 0.0 0.0 0.00 0.00 0.00 75 1015.2
20210618052104 54 0 0.0 0.0 0.00 0.00 0.00 75 1015.2
20210618052004 54 0 0.0 0.0 0.00 0.00 0.00 75 1015.2
20210618051904 54 0 0.0 0.0 0.00 0.00 0.00 75 1015.2
20210618051804 54 0 0.0 0.0 0.00 0.00 0.00 74 1015.2
20210618051704 54 0 0.0 0.0 0.00 0.00 0.00 74 1015.2
20210618051603 54 0 0.0 0.0 0.00 0.00 0.00 74 1015.1
20210618051504 54 0 0.0 0.0 0.00 0.00 0.00 74 1015.1
20210618051403 55 0 0.0 0.0 0.00 0.00 0.00 74 1015.1
20210618051304 55 0 0.0 0.0 0.00 0.00 0.00 73 1015.1
20210618051203 55 0 0.0 0.0 0.00 0.00 0.00 73 1015.1
20210618051104 55 0 0.0 0.0 0.00 0.00 0.00 73 1015.1
20210618051004 55 0 0.0 0.0 0.00 0.00 0.00 73 1015.1
20210618050903 55 0 0.0 0.0 0.00 0.00 0.00 73 1015.1
20210618050804 55 0 0.0 0.0 0.00 0.00 0.00 73 1015.1
20210618050704 55 0 0.0 0.0 0.00 0.00 0.00 73 1015.1
20210618050604 55 0 0.0 0.0 0.00 0.00 0.00 73 1015.1
20210618050504 55 0 0.0 0.0 0.00 0.00 0.00 73 1015.1
20210618050403 55 294 0.0 1.0 0.00 0.00 0.00 73 1015.1
20210618050304 55 294 0.0 1.0 0.00 0.00 0.00 73 1015.1
20210618050204 55 294 0.0 1.0 0.00 0.00 0.00 73 1015.0
20210618050104 55 294 0.0 1.0 0.00 0.00 0.00 73 1015.0
20210618050004 55 294 0.0 1.0 0.00 0.00 0.00 73 1015.0
20210618045904 55 294 0.0 1.0 0.00 0.00 0.00 73 1015.0
20210618045804 55 294 0.0 1.0 0.00 0.00 0.00 73 1014.9
20210618045704 55 294 0.0 1.0 0.00 0.00 0.00 74 1014.9
20210618045603 55 294 0.0 1.0 0.00 0.00 0.00 74 1014.9
20210618045504 55 294 0.0 1.0 0.00 0.00 0.00 74 1014.9
20210618045404 55 0 0.0 0.0 0.00 0.00 0.00 74 1014.9
20210618045305 55 294 0.0 1.0 0.00 0.00 0.00 74 1015.0
20210618045204 55 294 0.0 1.0 0.00 0.00 0.00 74 1015.0
20210618045103 55 294 0.0 1.0 0.00 0.00 0.00 75 1014.9
20210618045004 55 294 0.0 1.0 0.00 0.00 0.00 75 1014.9
20210618044905 55 294 0.0 1.0 0.00 0.00 0.00 75 1014.9
20210618044804 55 294 0.0 1.0 0.00 0.00 0.00 74 1015.0
20210618044704 55 294 0.0 1.0 0.00 0.00 0.00 74 1015.0
20210618044604 55 294 0.0 1.0 0.00 0.00 0.00 74 1015.1
20210618044504 55 294 0.0 1.0 0.00 0.00 0.00 74 1015.1
20210618044404 55 294 0.0 1.0 0.00 0.00 0.00 74 1015.0
20210618044304 55 0 0.0 0.0 0.00 0.00 0.00 74 1015.0
20210618044204 55 0 0.0 0.0 0.00 0.00 0.00 74 1015.0
20210618044104 55 0 0.0 0.0 0.00 0.00 0.00 74 1015.0
20210618044004 55 0 0.0 0.0 0.00 0.00 0.00 73 1015.1
20210618043904 56 0 0.0 0.0 0.00 0.00 0.00 73 1015.1
20210618043804 56 0 0.0 0.0 0.00 0.00 0.00 73 1015.1
20210618043704 56 0 0.0 0.0 0.00 0.00 0.00 72 1015.1
20210618043604 56 0 0.0 0.0 0.00 0.00 0.00 72 1015.1
20210618043503 56 0 0.0 0.0 0.00 0.00 0.00 72 1015.1
20210618043404 56 294 0.0 1.0 0.00 0.00 0.00 72 1015.1
20210618043304 56 294 0.0 1.0 0.00 0.00 0.00 71 1015.1
20210618043204 56 294 0.0 1.0 0.00 0.00 0.00 71 1015.0
20210618043104 56 294 0.0 1.0 0.00 0.00 0.00 71 1015.0
20210618043004 56 294 0.0 1.0 0.00 0.00 0.00 71 1015.0
20210618042904 56 294 0.0 1.0 0.00 0.00 0.00 71 1015.0
20210618042804 56 294 0.0 1.0 0.00 0.00 0.00 71 1015.0
20210618042704 56 294 0.0 1.0 0.00 0.00 0.00 71 1015.0
20210618042605 56 294 0.0 1.0 0.00 0.00 0.00 71 1015.0
20210618042504 56 294 0.0 1.0 0.00 0.00 0.00 71 1015.0
20210618042404 56 0 0.0 0.0 0.00 0.00 0.00 71 1015.0
20210618042305 56 0 0.0 0.0 0.00 0.00 0.00 71 1015.0
20210618042204 56 0 0.0 0.0 0.00 0.00 0.00 71 1015.0
20210618042105 56 0 0.0 0.0 0.00 0.00 0.00 71 1015.0
20210618042004 56 0 0.0 0.0 0.00 0.00 0.00 71 1015.0
20210618041904 56 0 0.0 0.0 0.00 0.00 0.00 71 1015.0
20210618041804 56 0 0.0 0.0 0.00 0.00 0.00 71 1015.0
20210618041704 56 0 0.0 0.0 0.00 0.00 0.00 70 1015.0
20210618041604 56 0 0.0 0.0 0.00 0.00 0.00 70 1015.0
20210618041504 56 0 0.0 0.0 0.00 0.00 0.00 70 1015.0
20210618041404 56 0 0.0 0.0 0.00 0.00 0.00 70 1015.0
20210618041304 56 0 0.0 0.0 0.00 0.00 0.00 70 1015.0
20210618041204 56 0 0.0 0.0 0.00 0.00 0.00 70 1015.0
20210618041104 56 0 0.0 0.0 0.00 0.00 0.00 69 1015.0
20210618041004 56 0 0.0 0.0 0.00 0.00 0.00 69 1015.0
20210618040904 56 0 0.0 0.0 0.00 0.00 0.00 69 1015.0
20210618040804 56 0 0.0 0.0 0.00 0.00 0.00 69 1015.0
20210618040704 56 0 0.0 0.0 0.00 0.00 0.00 69 1015.0
20210618040604 56 0 0.0 0.0 0.00 0.00 0.00 69 1015.0
20210618040504 56 0 0.0 0.0 0.00 0.00 0.00 68 1015.0
20210618040404 56 0 0.0 0.0 0.00 0.00 0.00 68 1014.9
20210618040304 56 0 0.0 0.0 0.00 0.00 0.00 68 1014.9
20210618040203 57 0 0.0 0.0 0.00 0.00 0.00 67 1014.9
20210618040104 57 0 0.0 0.0 0.00 0.00 0.00 67 1014.9
20210618040005 57 0 0.0 0.0 0.00 0.00 0.00 67 1014.9
20210618035904 57 0 0.0 0.0 0.00 0.00 0.00 67 1014.9
20210618035804 57 0 0.0 0.0 0.00 0.00 0.00 67 1014.9
20210618035704 57 0 0.0 0.0 0.00 0.00 0.00 67 1014.8
20210618035604 57 294 0.0 1.0 0.00 0.00 0.00 67 1014.8
20210618035504 57 293 0.0 2.0 0.00 0.00 0.00 67 1014.9
20210618035404 57 293 0.0 2.0 0.00 0.00 0.00 67 1014.9
20210618035305 57 293 0.0 2.0 0.00 0.00 0.00 67 1014.9
20210618035204 57 293 0.0 2.0 0.00 0.00 0.00 67 1014.8
20210618035104 57 293 0.0 2.0 0.00 0.00 0.00 67 1014.8
20210618035004 57 294 0.0 3.0 0.00 0.00 0.00 66 1014.8
20210618034904 57 293 0.0 3.0 0.00 0.00 0.00 66 1014.8
20210618034804 57 293 0.0 3.0 0.00 0.00 0.00 66 1014.8
20210618034704 57 293 0.0 3.0 0.00 0.00 0.00 66 1014.8
20210618034603 57 294 0.0 3.0 0.00 0.00 0.00 66 1014.8
20210618034504 57 294 0.0 3.0 0.00 0.00 0.00 66 1014.8
20210618034404 57 294 0.0 3.0 0.00 0.00 0.00 66 1014.8
20210618034304 57 294 0.0 3.0 0.00 0.00 0.00 67 1014.8
20210618034204 57 294 0.0 3.0 0.00 0.00 0.00 67 1014.8
20210618034104 58 294 0.0 3.0 0.00 0.00 0.00 67 1014.8
20210618034004 58 294 0.0 2.0 0.00 0.00 0.00 67 1014.8
20210618033904 58 293 0.0 2.0 0.00 0.00 0.00 67 1014.8
20210618033803 58 294 0.0 2.0 0.00 0.00 0.00 67 1014.8
20210618033704 58 294 0.0 2.0 0.00 0.00 0.00 67 1014.8
20210618033604 58 294 0.0 1.0 0.00 0.00 0.00 67 1014.8
20210618033504 58 294 0.0 1.0 0.00 0.00 0.00 67 1014.8
20210618033404 58 294 0.0 1.0 0.00 0.00 0.00 67 1014.7
20210618033304 58 294 0.0 1.0 0.00 0.00 0.00 67 1014.7
20210618033204 58 294 0.0 1.0 0.00 0.00 0.00 67 1014.7
20210618033104 58 294 0.0 1.0 0.00 0.00 0.00 67 1014.7
20210618033004 58 293 0.0 2.0 0.00 0.00 0.00 67 1014.7
20210618032904 58 294 0.0 2.0 0.00 0.00 0.00 66 1014.7
20210618032804 58 294 0.0 2.0 0.00 0.00 0.00 66 1014.7
20210618032704 58 294 0.0 2.0 0.00 0.00 0.00 66 1014.6
20210618032604 58 294 0.0 2.0 0.00 0.00 0.00 66 1014.7
20210618032504 58 294 0.0 2.0 0.00 0.00 0.00 66 1014.7
20210618032404 58 294 0.0 2.0 0.00 0.00 0.00 65 1014.7
20210618032306 58 294 0.0 2.0 0.00 0.00 0.00 65 1014.7
20210618032204 58 293 0.0 2.0 0.00 0.00 0.00 65 1014.7
20210618032104 58 293 0.0 2.0 0.00 0.00 0.00 65 1014.7
20210618032004 58 294 0.0 3.0 0.00 0.00 0.00 65 1014.6
20210618031904 58 294 0.0 3.0 0.00 0.00 0.00 65 1014.6
20210618031805 58 294 0.0 3.0 0.00 0.00 0.00 65 1014.6
20210618031704 58 294 1.0 5.0 0.00 0.00 0.00 65 1014.6
20210618031604 58 294 1.0 5.0 0.00 0.00 0.00 65 1014.6
20210618031504 58 294 1.0 5.0 0.00 0.00 0.00 65 1014.6
20210618031404 58 294 1.0 5.0 0.00 0.00 0.00 65 1014.5
20210618031304 58 294 1.0 5.0 0.00 0.00 0.00 65 1014.5
20210618031204 58 294 1.0 5.0 0.00 0.00 0.00 64 1014.5
20210618031104 58 294 0.0 5.0 0.00 0.00 0.00 64 1014.5
20210618031004 58 294 0.0 5.0 0.00 0.00 0.00 64 1014.5
20210618030904 58 294 0.0 5.0 0.00 0.00 0.00 64 1014.5
20210618030803 58 294 0.0 5.0 0.00 0.00 0.00 64 1014.5
20210618030704 58 293 0.0 5.0 0.00 0.00 0.00 64 1014.5
20210618030604 58 293 0.0 5.0 0.00 0.00 0.00 64 1014.5
20210618030503 58 293 0.0 5.0 0.00 0.00 0.00 65 1014.5
20210618030404 58 294 1.0 5.0 0.00 0.00 0.00 65 1014.5
20210618030304 58 294 1.0 5.0 0.00 0.00 0.00 65 1014.5
20210618030204 58 294 1.0 5.0 0.00 0.00 0.00 65 1014.5
20210618030104 58 294 1.0 5.0 0.00 0.00 0.00 65 1014.5
20210618030004 58 294 1.0 5.0 0.00 0.00 0.00 65 1014.5
20210618025904 58 294 1.0 5.0 0.00 0.00 0.00 65 1014.5
20210618025804 58 294 1.0 5.0 0.00 0.00 0.00 66 1014.5
20210618025703 58 294 1.0 5.0 0.00 0.00 0.00 66 1014.5
20210618025604 58 294 1.0 5.0 0.00 0.00 0.00 66 1014.5
20210618025504 58 294 1.0 5.0 0.00 0.00 0.00 66 1014.5
20210618025404 58 294 1.0 7.0 0.00 0.00 0.00 66 1014.5
20210618025306 58 294 1.0 7.0 0.00 0.00 0.00 65 1014.5
20210618025204 58 294 1.0 7.0 0.00 0.00 0.00 65 1014.4
20210618025105 58 294 1.0 7.0 0.00 0.00 0.00 65 1014.5
20210618025004 58 294 1.0 7.0 0.00 0.00 0.00 66 1014.5
20210618024904 58 294 1.0 7.0 0.00 0.00 0.00 66 1014.5
20210618024804 58 294 2.0 7.0 0.00 0.00 0.00 65 1014.4
20210618024704 58 294 2.0 7.0 0.00 0.00 0.00 65 1014.4
20210618024604 58 294 2.0 7.0 0.00 0.00 0.00 65 1014.4
20210618024505 59 294 2.0 7.0 0.00 0.00 0.00 65 1014.4
20210618024404 59 294 2.0 6.0 0.00 0.00 0.00 64 1014.4
20210618024304 59 294 2.0 6.0 0.00 0.00 0.00 64 1014.4
20210618024203 59 294 2.0 6.0 0.00 0.00 0.00 63 1014.4
20210618024104 59 294 1.0 6.0 0.00 0.00 0.00 63 1014.4
20210618024005 59 294 1.0 3.0 0.00 0.00 0.00 63 1014.4
20210618023904 60 294 1.0 3.0 0.00 0.00 0.00 63 1014.4
20210618023804 60 294 1.0 3.0 0.00 0.00 0.00 62 1014.4
20210618023704 60 294 1.0 3.0 0.00 0.00 0.00 62 1014.4
20210618023604 61 294 0.0 3.0 0.00 0.00 0.00 61 1014.4
20210618023504 61 294 0.0 2.0 0.00 0.00 0.00 61 1014.4
20210618023404 61 294 0.0 2.0 0.00 0.00 0.00 60 1014.4
20210618023304 61 294 0.0 2.0 0.00 0.00 0.00 60 1014.3
20210618023204 61 294 0.0 2.0 0.00 0.00 0.00 60 1014.3
20210618023104 61 294 0.0 1.0 0.00 0.00 0.00 60 1014.3
20210618023004 61 294 0.0 1.0 0.00 0.00 0.00 59 1014.3
20210618022904 61 294 0.0 1.0 0.00 0.00 0.00 59 1014.3
20210618022804 61 294 0.0 1.0 0.00 0.00 0.00 59 1014.3
20210618022704 61 294 0.0 1.0 0.00 0.00 0.00 59 1014.3
20210618022604 61 294 0.0 1.0 0.00 0.00 0.00 59 1014.3
20210618022504 61 293 0.0 2.0 0.00 0.00 0.00 58 1014.4
20210618022404 61 293 0.0 2.0 0.00 0.00 0.00 58 1014.3
20210618022306 61 293 0.0 2.0 0.00 0.00 0.00 58 1014.3
20210618022204 61 294 0.0 8.0 0.00 0.00 0.00 58 1014.3
20210618022104 61 293 0.0 8.0 0.00 0.00 0.00 58 1014.3
20210618022004 61 293 0.0 8.0 0.00 0.00 0.00 57 1014.3
20210618021904 61 293 0.0 8.0 0.00 0.00 0.00 57 1014.3
20210618021804 61 293 0.0 8.0 0.00 0.00 0.00 57 1014.3
20210618021704 62 293 0.0 8.0 0.00 0.00 0.00 56 1014.4
20210618021604 62 293 0.0 8.0 0.00 0.00 0.00 56 1014.4
20210618021504 62 294 0.0 8.0 0.00 0.00 0.00 56 1014.3
20210618021404 62 294 0.0 8.0 0.00 0.00 0.00 56 1014.3
20210618021303 63 294 0.0 8.0 0.00 0.00 0.00 55 1014.3
20210618021204 63 294 0.0 1.0 0.00 0.00 0.00 55 1014.2
20210618021104 63 0 0.0 0.0 0.00 0.00 0.00 54 1014.2
20210618021004 63 0 0.0 0.0 0.00 0.00 0.00 54 1014.2
20210618020904 63 0 0.0 0.0 0.00 0.00 0.00 54 1014.2
20210618020804 63 0 0.0 0.0 0.00 0.00 0.00 54 1014.2
20210618020704 63 0 0.0 0.0 0.00 0.00 0.00 54 1014.2
20210618020603 63 0 0.0 0.0 0.00 0.00 0.00 54 1014.2
20210618020504 63 0 0.0 0.0 0.00 0.00 0.00 54 1014.1
20210618020404 63 0 0.0 0.0 0.00 0.00 0.00 54 1014.2
20210618020304 63 0 0.0 0.0 0.00 0.00 0.00 54 1014.1
20210618020204 63 0 0.0 0.0 0.00 0.00 0.00 55 1014.1
20210618020104 63 294 0.0 1.0 0.00 0.00 0.00 54 1014.1
20210618020004 63 294 0.0 1.0 0.00 0.00 0.00 54 1014.1
20210618015904 63 294 0.0 1.0 0.00 0.00 0.00 53 1014.1
20210618015804 63 294 0.0 1.0 0.00 0.00 0.00 52 1014.0
20210618015704 63 294 0.0 1.0 0.00 0.00 0.00 53 1014.0
20210618015604 63 294 0.0 1.0 0.00 0.00 0.00 53 1014.0
20210618015504 64 294 0.0 1.0 0.00 0.00 0.00 53 1014.0
20210618015404 64 294 0.0 1.0 0.00 0.00 0.00 53 1013.9
20210618015305 64 293 0.0 1.0 0.00 0.00 0.00 52 1013.9
20210618015204 64 294 0.0 1.0 0.00 0.00 0.00 53 1013.9
20210618015104 64 294 0.0 1.0 0.00 0.00 0.00 52 1013.9
20210618015004 64 294 0.0 1.0 0.00 0.00 0.00 51 1014.0
20210618014905 64 294 0.0 1.0 0.00 0.00 0.00 51 1013.9
20210618014804 65 293 0.0 1.0 0.00 0.00 0.00 50 1013.9
20210618014704 65 293 0.0 1.0 0.00 0.00 0.00 51 1013.8
20210618014604 65 293 0.0 1.0 0.00 0.00 0.00 51 1013.8
20210618014504 65 293 0.0 1.0 0.00 0.00 0.00 50 1013.8
20210618014404 66 293 0.0 1.0 0.00 0.00 0.00 50 1013.8
20210618014304 66 294 0.0 1.0 0.00 0.00 0.00 50 1013.8
20210618014204 66 294 0.0 1.0 0.00 0.00 0.00 49 1013.7
20210618014104 67 294 0.0 1.0 0.00 0.00 0.00 48 1013.7
20210618014005 67 294 0.0 1.0 0.00 0.00 0.00 48 1013.7
20210618013904 67 294 0.0 1.0 0.00 0.00 0.00 49 1013.7
20210618013804 67 0 0.0 0.0 0.00 0.00 0.00 48 1013.7
20210618013703 67 0 0.0 0.0 0.00 0.00 0.00 48 1013.7
20210618013604 67 0 0.0 0.0 0.00 0.00 0.00 48 1013.7
20210618013504 68 0 0.0 0.0 0.00 0.00 0.00 48 1013.7
20210618013404 68 0 0.0 0.0 0.00 0.00 0.00 48 1013.7
20210618013304 68 0 0.0 0.0 0.00 0.00 0.00 47 1013.6
20210618013204 68 0 0.0 0.0 0.00 0.00 0.00 48 1013.6
20210618013104 68 0 0.0 0.0 0.00 0.00 0.00 47 1013.6
20210618013004 68 0 0.0 0.0 0.00 0.00 0.00 47 1013.6
20210618012903 68 0 0.0 0.0 0.00 0.00 0.00 46 1013.6
20210618012804 68 0 0.0 0.0 0.00 0.00 0.00 46 1013.6
20210618012704 68 0 0.0 0.0 0.00 0.00 0.00 45 1013.6
20210618012604 68 0 0.0 0.0 0.00 0.00 0.00 46 1013.5
20210618012505 68 0 0.0 0.0 0.00 0.00 0.00 47 1013.6
20210618012404 68 0 0.0 0.0 0.00 0.00 0.00 47 1013.6
20210618012305 68 0 0.0 0.0 0.00 0.00 0.00 46 1013.5
20210618012204 68 0 0.0 0.0 0.00 0.00 0.00 46 1013.5
20210618012104 68 0 0.0 0.0 0.00 0.00 0.00 46 1013.5
20210618012004 68 0 0.0 0.0 0.00 0.00 0.00 46 1013.5
20210618011904 68 0 0.0 0.0 0.00 0.00 0.00 45 1013.5
20210618011805 68 0 0.0 0.0 0.00 0.00 0.00 46 1013.4
20210618011704 69 0 0.0 0.0 0.00 0.00 0.00 46 1013.4
20210618011604 69 0 0.0 0.0 0.00 0.00 0.00 45 1013.4
20210618011504 69 0 0.0 0.0 0.00 0.00 0.00 45 1013.4
20210618011404 69 0 0.0 0.0 0.00 0.00 0.00 46 1013.4
20210618011304 69 0 0.0 0.0 0.00 0.00 0.00 45 1013.4
20210618011204 69 0 0.0 0.0 0.00 0.00 0.00 46 1013.4
20210618011104 69 0 0.0 0.0 0.00 0.00 0.00 45 1013.3
20210618011004 69 0 0.0 0.0 0.00 0.00 0.00 44 1013.3
20210618010904 69 0 0.0 0.0 0.00 0.00 0.00 45 1013.3
20210618010804 69 0 0.0 0.0 0.00 0.00 0.00 44 1013.3
20210618010704 69 0 0.0 0.0 0.00 0.00 0.00 44 1013.2
20210618010604 69 0 0.0 0.0 0.00 0.00 0.00 43 1013.2
20210618010504 69 0 0.0 0.0 0.00 0.00 0.00 43 1013.1
20210618010404 69 0 0.0 0.0 0.00 0.00 0.00 42 1013.1
20210618010304 69 0 0.0 0.0 0.00 0.00 0.00 42 1013.1
20210618010204 70 0 0.0 0.0 0.00 0.00 0.00 42 1013.1
20210618010104 70 0 0.0 0.0 0.00 0.00 0.00 44 1013.1
20210618010004 70 0 0.0 0.0 0.00 0.00 0.00 42 1013.1
20210618005904 70 0 0.0 0.0 0.00 0.00 0.00 42 1013.1
20210618005804 70 0 0.0 0.0 0.00 0.00 0.00 43 1013.1
20210618005704 70 0 0.0 0.0 0.00 0.00 0.00 43 1013.0
20210618005604 70 0 0.0 0.0 0.00 0.00 0.00 42 1013.1
20210618005504 70 0 0.0 0.0 0.00 0.00 0.00 42 1013.1
20210618005404 70 0 0.0 0.0 0.00 0.00 0.00 42 1013.1
20210618005305 70 0 0.0 0.0 0.00 0.00 0.00 42 1013.1
20210618005204 70 0 0.0 0.0 0.00 0.00 0.00 43 1013.1
20210618005104 70 0 0.0 0.0 0.00 0.00 0.00 43 1013.1
20210618005004 70 0 0.0 0.0 0.00 0.00 0.00 42 1013.1
20210618004904 70 0 0.0 0.0 0.00 0.00 0.00 43 1013.1
20210618004804 70 0 0.0 0.0 0.00 0.00 0.00 42 1013.1
20210618004704 70 294 0.0 1.0 0.00 0.00 0.00 42 1013.0
20210618004604 70 293 0.0 1.0 0.00 0.00 0.00 41 1013.1
20210618004504 70 293 0.0 1.0 0.00 0.00 0.00 40 1013.1
20210618004404 70 293 0.0 1.0 0.00 0.00 0.00 39 1013.1
20210618004304 70 293 0.0 1.0 0.00 0.00 0.00 38 1013.1
20210618004205 70 293 0.0 1.0 0.00 0.00 0.00 37 1013.0
20210618004104 70 293 0.0 1.0 0.00 0.00 0.00 38 1013.1
20210618004004 70 294 0.0 1.0 0.00 0.00 0.00 39 1013.1
20210618003905 70 293 0.0 2.0 0.00 0.00 0.00 39 1013.0
20210618003804 70 293 0.0 2.0 0.00 0.00 0.00 39 1013.0
20210618003704 70 293 0.0 2.0 0.00 0.00 0.00 38 1013.0
20210618003604 70 293 0.0 2.0 0.00 0.00 0.00 37 1013.0
20210618003504 70 293 0.0 2.0 0.00 0.00 0.00 39 1013.0
20210618003404 70 293 0.0 2.0 0.00 0.00 0.00 38 1013.0
20210618003304 70 293 0.0 2.0 0.00 0.00 0.00 39 1013.0
20210618003204 70 293 0.0 2.0 0.00 0.00 0.00 39 1013.0
20210618003104 70 293 0.0 2.0 0.00 0.00 0.00 36 1013.0
20210618003004 70 294 0.0 2.0 0.00 0.00 0.00 37 1012.9
20210618002904 70 294 0.0 2.0 0.00 0.00 0.00 36 1012.9
20210618002804 71 293 0.0 2.0 0.00 0.00 0.00 36 1012.9
20210618002704 71 293 0.0 1.0 0.00 0.00 0.00 37 1012.9
20210618002604 71 293 0.0 4.0 0.00 0.00 0.00 38 1012.9
20210618002504 70 293 0.0 4.0 0.00 0.00 0.00 39 1012.9
20210618002404 70 293 1.0 4.0 0.00 0.00 0.00 37 1012.9
20210618002305 70 294 1.0 4.0 0.00 0.00 0.00 37 1012.9
20210618002204 70 294 1.0 4.0 0.00 0.00 0.00 37 1012.9
20210618002104 70 294 1.0 4.0 0.00 0.00 0.00 36 1012.9
20210618002003 71 294 1.0 4.0 0.00 0.00 0.00 36 1012.9
20210618001904 71 294 1.0 4.0 0.00 0.00 0.00 36 1012.9
20210618001804 71 293 1.0 4.0 0.00 0.00 0.00 36 1012.9
20210618001704 71 293 0.0 4.0 0.00 0.00 0.00 35 1012.9
20210618001604 71 294 0.0 4.0 0.00 0.00 0.00 36 1012.9
20210618001504 71 294 0.0 4.0 0.00 0.00 0.00 37 1012.9
20210618001403 71 294 0.0 4.0 0.00 0.00 0.00 35 1012.9
20210618001304 72 293 0.0 2.0 0.00 0.00 0.00 37 1012.9
20210618001204 72 294 0.0 1.0 0.00 0.00 0.00 36 1012.9
20210618001104 72 294 0.0 3.0 0.00 0.00 0.00 36 1012.8
20210618001004 71 294 0.0 3.0 0.00 0.00 0.00 37 1012.8
20210618000905 71 293 1.0 3.0 0.00 0.00 0.00 36 1012.9
20210618000804 71 293 1.0 6.0 0.00 0.00 0.00 36 1012.9
20210618000704 71 289 1.0 6.0 0.00 0.00 0.00 36 1012.9
20210618000604 71 285 1.0 6.0 0.00 0.00 0.00 35 1012.9
20210618000504 71 284 1.0 6.0 0.00 0.00 0.00 35 1012.9
20210618000406 71 283 1.0 6.0 0.00 0.00 0.00 35 1012.9
20210618000304 72 282 1.0 6.0 0.00 0.00 0.00 35 1012.9
20210618000204 72 281 1.0 6.0 0.00 0.00 0.00 34 1012.9
20210618000104 72 279 1.0 6.0 0.00 0.00 0.00 34 1012.9
20210618000005 72 279 1.0 6.0 0.00 0.00 0.00 34 1012.9
20210617235904 72 278 1.0 6.0 0.00 0.00 0.00 33 1012.9
20210617235804 72 274 1.0 4.0 0.00 0.00 0.00 33 1012.9
20210617235704 72 274 1.0 4.0 0.00 0.00 0.00 33 1012.9
20210617235605 72 274 1.0 4.0 0.00 0.00 0.00 33 1012.9
20210617235504 73 274 1.0 4.0 0.00 0.00 0.00 32 1012.9
20210617235403 73 274 1.0 3.0 0.00 0.00 0.00 32 1012.9
20210617235305 73 274 0.0 2.0 0.00 0.00 0.00 33 1012.8
20210617235204 73 274 0.0 2.0 0.00 0.00 0.00 32 1012.8
20210617235104 73 274 0.0 2.0 0.00 0.00 0.00 32 1012.8
20210617235004 73 274 0.0 2.0 0.00 0.00 0.00 31 1012.8
20210617234904 74 274 0.0 2.0 0.00 0.00 0.00 31 1012.8
20210617234804 74 274 0.0 2.0 0.00 0.00 0.00 31 1012.8
20210617234704 74 274 0.0 2.0 0.00 0.00 0.00 31 1012.8
20210617234604 74 274 0.0 2.0 0.00 0.00 0.00 31 1012.8
20210617234504 74 274 0.0 2.0 0.00 0.00 0.00 30 1012.8
20210617234404 74 274 0.0 2.0 0.00 0.00 0.00 31 1012.7
20210617234304 74 274 0.0 1.0 0.00 0.00 0.00 31 1012.7
20210617234204 74 274 0.0 3.0 0.00 0.00 0.00 32 1012.7
20210617234103 74 274 0.0 3.0 0.00 0.00 0.00 33 1012.7
20210617234004 74 274 1.0 3.0 0.00 0.00 0.00 33 1012.7
20210617233904 74 274 1.0 3.0 0.00 0.00 0.00 33 1012.7
20210617233804 74 274 1.0 3.0 0.00 0.00 0.00 31 1012.7
20210617233704 74 273 1.0 4.0 0.00 0.00 0.00 31 1012.6
20210617233604 74 273 1.0 4.0 0.00 0.00 0.00 31 1012.6
20210617233504 74 275 1.0 4.0 0.00 0.00 0.00 30 1012.6
20210617233404 74 275 1.0 4.0 0.00 0.00 0.00 29 1012.6
20210617233304 74 277 1.0 4.0 0.00 0.00 0.00 29 1012.6
20210617233204 74 278 1.0 4.0 0.00 0.00 0.00 30 1012.6
20210617233104 74 281 1.0 4.0 0.00 0.00 0.00 29 1012.6
20210617233004 74 281 1.0 4.0 0.00 0.00 0.00 29 1012.6
20210617232904 74 285 1.0 4.0 0.00 0.00 0.00 29 1012.6
20210617232804 75 287 1.0 4.0 0.00 0.00 0.00 29 1012.6
20210617232704 74 291 1.0 4.0 0.00 0.00 0.00 30 1012.5
20210617232604 74 295 1.0 4.0 0.00 0.00 0.00 29 1012.5
20210617232504 74 298 1.0 4.0 0.00 0.00 0.00 30 1012.5
20210617232404 74 299 1.0 4.0 0.00 0.00 0.00 29 1012.5
20210617232305 74 299 1.0 4.0 0.00 0.00 0.00 32 1012.5
20210617232204 74 299 1.0 5.0 0.00 0.00 0.00 30 1012.5
20210617232104 74 300 1.0 5.0 0.00 0.00 0.00 29 1012.5
20210617232004 74 300 1.0 5.0 0.00 0.00 0.00 29 1012.5
20210617231904 74 302 2.0 5.0 0.00 0.00 0.00 30 1012.5
20210617231804 74 299 2.0 7.0 0.00 0.00 0.00 29 1012.5
20210617231704 75 293 2.0 7.0 0.00 0.00 0.00 28 1012.5
20210617231604 75 286 2.0 7.0 0.00 0.00 0.00 29 1012.4
20210617231504 75 280 2.0 7.0 0.00 0.00 0.00 28 1012.4
20210617231404 75 278 2.0 7.0 0.00 0.00 0.00 28 1012.4
20210617231304 75 272 2.0 7.0 0.00 0.00 0.00 27 1012.5
20210617231204 75 271 3.0 7.0 0.00 0.00 0.00 28 1012.5
20210617231105 75 272 3.0 7.0 0.00 0.00 0.00 27 1012.5
20210617231004 76 270 2.0 7.0 0.00 0.00 0.00 27 1012.4
20210617230904 76 262 2.0 7.0 0.00 0.00 0.00 27 1012.3
20210617230804 77 257 2.0 6.0 0.00 0.00 0.00 27 1012.3
20210617230704 77 257 2.0 6.0 0.00 0.00 0.00 27 1012.3
20210617230604 77 258 2.0 6.0 0.00 0.00 0.00 26 1012.3
20210617230504 78 255 2.0 6.0 0.00 0.00 0.00 26 1012.3
20210617230404 78 253 1.0 6.0 0.00 0.00 0.00 26 1012.4
20210617230305 78 256 1.0 5.0 0.00 0.00 0.00 26 1012.3
20210617230204 78 251 1.0 5.0 0.00 0.00 0.00 25 1012.3
20210617230104 79 242 1.0 5.0 0.00 0.00 0.00 25 1012.3
20210617230004 79 242 1.0 5.0 0.00 0.00 0.00 25 1012.3
20210617225904 79 242 1.0 5.0 0.00 0.00 0.00 25 1012.3
20210617225804 79 243 1.0 4.0 0.00 0.00 0.00 26 1012.3
20210617225704 79 245 1.0 8.0 0.00 0.00 0.00 25 1012.3
20210617225604 80 254 1.0 8.0 0.00 0.00 0.00 25 1012.3
20210617225504 80 256 1.0 8.0 0.00 0.00 0.00 25 1012.2
20210617225404 80 259 1.0 8.0 0.00 0.00 0.00 25 1012.2
20210617225305 80 261 1.0 8.0 0.00 0.00 0.00 26 1012.2
20210617225204 79 261 1.0 8.0 0.00 0.00 0.00 27 1012.2
20210617225104 79 262 1.0 8.0 0.00 0.00 0.00 26 1012.2
20210617225005 79 263 1.0 8.0 0.00 0.00 0.00 27 1012.2
20210617224904 79 268 1.0 8.0 0.00 0.00 0.00 26 1012.2
20210617224804 79 280 1.0 8.0 0.00 0.00 0.00 24 1012.2
20210617224704 80 302 1.0 7.0 0.00 0.00 0.00 25 1012.2
20210617224604 79 306 1.0 7.0 0.00 0.00 0.00 26 1012.1
20210617224505 79 306 1.0 7.0 0.00 0.00 0.00 27 1012.1
20210617224404 79 306 1.0 7.0 0.00 0.00 0.00 28 1012.0
20210617224304 78 306 2.0 7.0 0.00 0.00 0.00 28 1012.0
20210617224204 78 307 2.0 7.0 0.00 0.00 0.00 27 1012.0
20210617224104 78 308 2.0 7.0 0.00 0.00 0.00 27 1012.1
20210617224004 78 308 2.0 7.0 0.00 0.00 0.00 26 1012.1
20210617223904 78 309 2.0 7.0 0.00 0.00 0.00 25 1012.0
20210617223804 79 310 1.0 7.0 0.00 0.00 0.00 24 1012.0
20210617223704 80 315 1.0 6.0 0.00 0.00 0.00 25 1012.0
20210617223604 80 315 1.0 6.0 0.00 0.00 0.00 25 1012.0
20210617223504 80 317 1.0 6.0 0.00 0.00 0.00 25 1012.0
20210617223404 81 321 1.0 6.0 0.00 0.00 0.00 24 1012.0
20210617223304 82 323 1.0 6.0 0.00 0.00 0.00 23 1012.0
20210617223203 83 331 1.0 6.0 0.00 0.00 0.00 25 1012.0
20210617223104 83 337 1.0 3.0 0.00 0.00 0.00 25 1012.0
20210617223004 83 333 1.0 3.0 0.00 0.00 0.00 25 1012.0
20210617222904 83 304 1.0 7.0 0.00 0.00 0.00 26 1012.0
20210617222804 82 271 1.0 7.0 0.00 0.00 0.00 25 1011.9
20210617222704 82 266 1.0 7.0 0.00 0.00 0.00 25 1011.9
20210617222604 82 254 1.0 7.0 0.00 0.00 0.00 25 1011.9
20210617222504 82 253 1.0 7.0 0.00 0.00 0.00 24 1011.8
20210617222404 82 246 1.0 7.0 0.00 0.00 0.00 25 1011.9
20210617222306 82 244 1.0 7.0 0.00 0.00 0.00 25 1011.9
20210617222204 82 231 1.0 7.0 0.00 0.00 0.00 25 1011.9
20210617222104 83 227 1.0 7.0 0.00 0.00 0.00 24 1011.9
20210617222004 84 224 1.0 7.0 0.00 0.00 0.00 23 1011.9
20210617221904 84 187 0.0 6.0 0.00 0.00 0.00 23 1011.9
20210617221804 84 169 0.0 4.0 0.00 0.00 0.00 24 1011.9
20210617221704 85 169 0.0 4.0 0.00 0.00 0.00 22 1011.9
20210617221604 85 169 0.0 3.0 0.00 0.00 0.00 23 1011.8
20210617221504 85 169 0.0 3.0 0.00 0.00 0.00 23 1011.8
20210617221404 85 169 0.0 3.0 0.00 0.00 0.00 25 1011.9
20210617221304 85 169 0.0 3.0 0.00 0.00 0.00 24 1011.8
20210617221204 84 169 0.0 3.0 0.00 0.00 0.00 26 1011.8
20210617221104 84 169 0.0 3.0 0.00 0.00 0.00 26 1011.8
20210617221004 84 169 0.0 3.0 0.00 0.00 0.00 23 1011.8
20210617220904 85 169 0.0 3.0 0.00 0.00 0.00 22 1011.8
20210617220804 85 168 0.0 2.0 0.00 0.00 0.00 25 1011.8
20210617220704 85 168 0.0 2.0 0.00 0.00 0.00 25 1011.8
20210617220604 85 168 0.0 2.0 0.00 0.00 0.00 24 1011.8
20210617220504 86 168 0.0 2.0 0.00 0.00 0.00 24 1011.7
20210617220404 86 168 0.0 2.0 0.00 0.00 0.00 23 1011.7
20210617220304 86 168 0.0 2.0 0.00 0.00 0.00 22 1011.8
20210617220204 87 168 0.0 2.0 0.00 0.00 0.00 23 1011.8
20210617220104 87 168 0.0 1.0 0.00 0.00 0.00 24 1011.8
20210617220005 88 168 0.0 1.0 0.00 0.00 0.00 22 1011.8
20210617215904 88 168 0.0 3.0 0.00 0.00 0.00 21 1011.8
20210617215803 89 168 0.0 3.0 0.00 0.00 0.00 23 1011.8
20210617215704 88 168 0.0 3.0 0.00 0.00 0.00 24 1011.8
20210617215605 88 168 0.0 3.0 0.00 0.00 0.00 24 1011.8
20210617215504 88 168 0.0 3.0 0.00 0.00 0.00 24 1011.8
20210617215405 88 168 0.0 3.0 0.00 0.00 0.00 23 1011.8
20210617215305 88 168 0.0 3.0 0.00 0.00 0.00 23 1011.9
20210617215204 88 168 0.0 3.0 0.00 0.00 0.00 24 1011.9
20210617215104 88 168 0.0 3.0 0.00 0.00 0.00 22 1011.8
20210617215004 88 168 0.0 3.0 0.00 0.00 0.00 21 1011.8
20210617214904 88 168 0.0 2.0 0.00 0.00 0.00 23 1011.8
20210617214804 88 168 0.0 2.0 0.00 0.00 0.00 23 1011.8
20210617214704 88 168 0.0 2.0 0.00 0.00 0.00 24 1011.8
20210617214604 88 168 0.0 2.0 0.00 0.00 0.00 25 1011.8
20210617214504 87 168 0.0 2.0 0.00 0.00 0.00 24 1011.8
20210617214405 87 168 0.0 2.0 0.00 0.00 0.00 24 1011.8
20210617214304 87 168 0.0 2.0 0.00 0.00 0.00 24 1011.8
20210617214205 87 168 0.0 2.0 0.00 0.00 0.00 23 1011.8
20210617214104 87 168 0.0 2.0 0.00 0.00 0.00 21 1011.8
20210617214004 87 168 0.0 1.0 0.00 0.00 0.00 22 1011.8
20210617213904 88 168 0.0 1.0 0.00 0.00 0.00 22 1011.8
20210617213805 88 168 0.0 1.0 0.00 0.00 0.00 23 1011.8
20210617213704 88 168 0.0 1.0 0.00 0.00 0.00 24 1011.8
20210617213604 88 168 0.0 1.0 0.00 0.00 0.00 23 1011.8
20210617213504 88 168 0.0 1.0 0.00 0.00 0.00 24 1011.9
20210617213404 88 168 0.0 1.0 0.00 0.00 0.00 23 1011.8
20210617213303 88 168 0.0 1.0 0.00 0.00 0.00 23 1011.8
20210617213204 88 168 0.0 2.0 0.00 0.00 0.00 24 1011.8
20210617213104 88 168 0.0 2.0 0.00 0.00 0.00 25 1011.9
20210617213005 88 168 0.0 2.0 0.00 0.00 0.00 24 1011.9
20210617212904 87 168 0.0 2.0 0.00 0.00 0.00 24 1011.9
20210617212804 87 168 0.0 2.0 0.00 0.00 0.00 24 1011.9
20210617212704 87 168 0.0 2.0 0.00 0.00 0.00 23 1011.9
20210617212604 87 168 0.0 2.0 0.00 0.00 0.00 23 1011.9
20210617212504 87 168 0.0 2.0 0.00 0.00 0.00 23 1011.9
20210617212404 87 168 0.0 2.0 0.00 0.00 0.00 23 1011.9
20210617212306 87 168 0.0 2.0 0.00 0.00 0.00 24 1011.9
20210617212204 87 168 0.0 2.0 0.00 0.00 0.00 24 1011.9
20210617212104 87 168 0.0 2.0 0.00 0.00 0.00 23 1012.0
20210617212004 87 168 0.0 2.0 0.00 0.00 0.00 24 1012.0
20210617211904 87 168 0.0 2.0 0.00 0.00 0.00 23 1012.0
20210617211804 87 168 0.0 2.0 0.00 0.00 0.00 22 1012.0
20210617211704 87 168 0.0 2.0 0.00 0.00 0.00 23 1012.0
20210617211604 87 168 0.0 2.0 0.00 0.00 0.00 23 1012.0
20210617211504 87 168 0.0 2.0 0.00 0.00 0.00 22 1012.0
20210617211404 87 168 0.0 2.0 0.00 0.00 0.00 22 1012.0
20210617211304 87 168 0.0 1.0 0.00 0.00 0.00 22 1012.0
20210617211204 87 168 0.0 1.0 0.00 0.00 0.00 23 1012.0
20210617211104 87 168 0.0 1.0 0.00 0.00 0.00 23 1012.0
20210617211004 87 168 0.0 1.0 0.00 0.00 0.00 23 1012.0
20210617210904 87 168 0.0 1.0 0.00 0.00 0.00 22 1012.0
20210617210804 87 168 0.0 1.0 0.00 0.00 0.00 24 1012.0
20210617210704 87 168 0.0 1.0 0.00 0.00 0.00 23 1012.0
20210617210604 87 168 0.0 1.0 0.00 0.00 0.00 25 1012.0
20210617210504 87 168 0.0 1.0 0.00 0.00 0.00 23 1012.0
20210617210404 87 168 0.0 1.0 0.00 0.00 0.00 24 1012.1
20210617210304 87 168 0.0 1.0 0.00 0.00 0.00 24 1012.1
20210617210203 86 168 0.0 1.0 0.00 0.00 0.00 23 1012.1
20210617210104 86 168 0.0 1.0 0.00 0.00 0.00 23 1012.1
20210617210004 86 169 0.0 2.0 0.00 0.00 0.00 23 1012.0
20210617205904 86 169 0.0 2.0 0.00 0.00 0.00 23 1012.0
20210617205804 86 169 0.0 2.0 0.00 0.00 0.00 24 1012.0
20210617205704 87 169 0.0 2.0 0.00 0.00 0.00 24 1012.0
20210617205604 86 169 1.0 3.0 0.00 0.00 0.00 24 1012.1
20210617205505 87 169 1.0 3.0 0.00 0.00 0.00 23 1012.0
20210617205404 87 169 1.0 3.0 0.00 0.00 0.00 22 1012.0
20210617205305 87 169 1.0 3.0 0.00 0.00 0.00 22 1012.0
20210617205204 87 169 1.0 3.0 0.00 0.00 0.00 21 1012.0
20210617205104 88 169 1.0 3.0 0.00 0.00 0.00 22 1012.0
20210617205005 88 169 1.0 3.0 0.00 0.00 0.00 22 1012.0
20210617204904 88 169 1.0 3.0 0.00 0.00 0.00 23 1012.0
20210617204804 87 171 1.0 3.0 0.00 0.00 0.00 23 1012.1
20210617204704 87 172 1.0 3.0 0.00 0.00 0.00 23 1012.1
20210617204604 87 173 1.0 3.0 0.00 0.00 0.00 24 1012.1
20210617204504 86 174 1.0 3.0 0.00 0.00 0.00 24 1012.1
20210617204404 86 174 1.0 3.0 0.00 0.00 0.00 24 1012.1
20210617204304 86 175 1.0 3.0 0.00 0.00 0.00 25 1012.1
20210617204204 86 176 1.0 3.0 0.00 0.00 0.00 25 1012.0
20210617204104 85 177 1.0 3.0 0.00 0.00 0.00 24 1012.0
20210617204004 85 178 1.0 3.0 0.00 0.00 0.00 22 1012.0
20210617203904 86 181 1.0 3.0 0.00 0.00 0.00 24 1012.0
20210617203804 86 181 0.0 3.0 0.00 0.00 0.00 23 1012.0
20210617203705 86 181 0.0 3.0 0.00 0.00 0.00 24 1012.0
20210617203604 86 181 0.0 2.0 0.00 0.00 0.00 23 1012.0
20210617203504 86 181 0.0 2.0 0.00 0.00 0.00 23 1012.0
20210617203404 86 181 0.0 2.0 0.00 0.00 0.00 23 1012.0
20210617203304 86 181 0.0 2.0 0.00 0.00 0.00 23 1012.0
20210617203204 86 181 0.0 2.0 0.00 0.00 0.00 23 1012.0
20210617203104 86 181 0.0 2.0 0.00 0.00 0.00 24 1012.0
20210617203004 86 181 0.0 1.0 0.00 0.00 0.00 25 1011.9
20210617202904 86 181 0.0 1.0 0.00 0.00 0.00 25 1011.9
20210617202804 86 181 0.0 1.0 0.00 0.00 0.00 25 1011.9
20210617202704 86 181 0.0 1.0 0.00 0.00 0.00 25 1011.9
20210617202604 86 181 0.0 1.0 0.00 0.00 0.00 23 1012.0
20210617202504 86 181 0.0 1.0 0.00 0.00 0.00 23 1012.0
20210617202404 86 181 0.0 2.0 0.00 0.00 0.00 23 1011.9
20210617202305 86 181 0.0 2.0 0.00 0.00 0.00 24 1011.9
20210617202204 86 181 0.0 2.0 0.00 0.00 0.00 22 1011.9
20210617202104 86 181 1.0 2.0 0.00 0.00 0.00 23 1011.9
20210617202004 87 181 1.0 2.0 0.00 0.00 0.00 21 1012.0
20210617201905 87 181 1.0 2.0 0.00 0.00 0.00 23 1011.9
20210617201804 87 181 1.0 2.0 0.00 0.00 0.00 23 1011.9
20210617201705 87 181 1.0 2.0 0.00 0.00 0.00 22 1011.9
20210617201604 88 181 1.0 2.0 0.00 0.00 0.00 22 1011.9
20210617201504 88 181 0.0 2.0 0.00 0.00 0.00 23 1011.9
20210617201404 87 181 0.0 2.0 0.00 0.00 0.00 23 1011.9
20210617201304 87 181 0.0 2.0 0.00 0.00 0.00 22 1011.9
20210617201204 88 181 0.0 2.0 0.00 0.00 0.00 23 1011.9
20210617201104 88 181 0.0 1.0 0.00 0.00 0.00 23 1011.9
20210617201004 88 181 0.0 2.0 0.00 0.00 0.00 23 1011.9
20210617200904 88 181 0.0 2.0 0.00 0.00 0.00 24 1011.9
20210617200804 88 181 0.0 2.0 0.00 0.00 0.00 23 1011.9
20210617200704 88 181 0.0 2.0 0.00 0.00 0.00 22 1011.9
20210617200604 88 181 0.0 2.0 0.00 0.00 0.00 22 1011.9
20210617200504 88 181 0.0 2.0 0.00 0.00 0.00 23 1011.9
20210617200404 88 181 0.0 2.0 0.00 0.00 0.00 23 1011.9
20210617200304 87 181 0.0 2.0 0.00 0.00 0.00 23 1012.0
20210617200204 87 181 0.0 2.0 0.00 0.00 0.00 23 1012.0
20210617200104 87 181 0.0 2.0 0.00 0.00 0.00 24 1012.0
20210617200005 87 181 0.0 2.0 0.00 0.00 0.00 23 1011.9
20210617195904 87 181 0.0 2.0 0.00 0.00 0.00 23 1011.9
20210617195804 87 181 0.0 2.0 0.00 0.00 0.00 23 1012.0
20210617195704 87 181 0.0 2.0 0.00 0.00 0.00 23 1011.9
20210617195604 87 181 0.0 2.0 0.00 0.00 0.00 23 1012.0
20210617195504 87 181 0.0 2.0 0.00 0.00 0.00 23 1011.9
20210617195404 87 181 0.0 2.0 0.00 0.00 0.00 22 1011.9
20210617195305 87 181 0.0 2.0 0.00 0.00 0.00 23 1012.0
20210617195204 87 181 0.0 2.0 0.00 0.00 0.00 23 1012.0
20210617195104 87 181 0.0 2.0 0.00 0.00 0.00 23 1011.9
20210617195004 87 181 0.0 2.0 0.00 0.00 0.00 24 1011.9
20210617194904 86 181 0.0 2.0 0.00 0.00 0.00 24 1012.0
20210617194804 86 181 0.0 2.0 0.00 0.00 0.00 24 1012.0
20210617194704 86 181 0.0 2.0 0.00 0.00 0.00 25 1012.0
20210617194604 86 181 0.0 2.0 0.00 0.00 0.00 25 1012.0
20210617194504 86 181 0.0 2.0 0.00 0.00 0.00 24 1012.0
20210617194404 86 181 0.0 2.0 0.00 0.00 0.00 24 1012.0
20210617194304 86 181 0.0 2.0 0.00 0.00 0.00 23 1012.0
20210617194204 86 181 0.0 2.0 0.00 0.00 0.00 24 1012.0
20210617194104 86 181 0.0 2.0 0.00 0.00 0.00 24 1012.0
20210617194004 86 181 1.0 2.0 0.00 0.00 0.00 24 1012.0
20210617193904 86 181 0.0 3.0 0.00 0.00 0.00 24 1012.0
20210617193804 85 181 0.0 3.0 0.00 0.00 0.00 24 1012.0
20210617193705 85 181 0.0 3.0 0.00 0.00 0.00 25 1012.1
20210617193604 85 181 0.0 3.0 0.00 0.00 0.00 24 1012.0
20210617193504 85 181 0.0 3.0 0.00 0.00 0.00 24 1012.1
20210617193404 85 181 0.0 3.0 0.00 0.00 0.00 25 1012.1
20210617193304 85 181 0.0 3.0 0.00 0.00 0.00 23 1012.1
20210617193204 86 181 0.0 3.0 0.00 0.00 0.00 22 1012.2
20210617193104 86 181 0.0 3.0 0.00 0.00 0.00 23 1012.2
20210617193004 86 181 0.0 3.0 0.00 0.00 0.00 23 1012.2
20210617192904 86 182 0.0 2.0 0.00 0.00 0.00 24 1012.3
20210617192804 86 183 0.0 2.0 0.00 0.00 0.00 24 1012.3
20210617192704 86 186 0.0 1.0 0.00 0.00 0.00 24 1012.3
20210617192604 86 186 0.0 1.0 0.00 0.00 0.00 24 1012.3
20210617192504 86 186 0.0 1.0 0.00 0.00 0.00 25 1012.3
20210617192404 86 186 0.0 1.0 0.00 0.00 0.00 25 1012.3
20210617192306 86 186 0.0 1.0 0.00 0.00 0.00 25 1012.2
20210617192204 86 186 0.0 1.0 0.00 0.00 0.00 24 1012.2
20210617192104 86 186 0.0 1.0 0.00 0.00 0.00 25 1012.2
20210617192004 86 186 0.0 1.0 0.00 0.00 0.00 25 1012.2
20210617191904 86 186 0.0 1.0 0.00 0.00 0.00 24 1012.3
20210617191804 86 186 0.0 1.0 0.00 0.00 0.00 24 1012.3
20210617191704 86 186 0.0 1.0 0.00 0.00 0.00 24 1012.3
20210617191604 85 186 0.0 1.0 0.00 0.00 0.00 25 1012.3
20210617191504 85 186 0.0 1.0 0.00 0.00 0.00 25 1012.3
20210617191404 85 186 0.0 1.0 0.00 0.00 0.00 25 1012.3
20210617191304 85 186 0.0 1.0 0.00 0.00 0.00 25 1012.3
20210617191204 85 186 0.0 1.0 0.00 0.00 0.00 26 1012.2
20210617191104 85 186 0.0 1.0 0.00 0.00 0.00 24 1012.3
20210617191004 85 186 0.0 2.0 0.00 0.00 0.00 25 1012.3
20210617190904 85 186 0.0 3.0 0.00 0.00 0.00 26 1012.3
20210617190804 85 186 0.0 3.0 0.00 0.00 0.00 26 1012.3
20210617190704 85 186 1.0 3.0 0.00 0.00 0.00 26 1012.3
20210617190604 84 193 1.0 4.0 0.00 0.00 0.00 26 1012.3
20210617190504 84 196 1.0 4.0 0.00 0.00 0.00 27 1012.3
20210617190404 84 196 1.0 4.0 0.00 0.00 0.00 26 1012.2
20210617190304 84 197 1.0 4.0 0.00 0.00 0.00 25 1012.3
20210617190205 84 197 1.0 4.0 0.00 0.00 0.00 25 1012.3
20210617190104 84 199 1.0 4.0 0.00 0.00 0.00 24 1012.3
20210617190005 84 201 0.0 4.0 0.00 0.00 0.00 25 1012.3
20210617185904 84 206 0.0 4.0 0.00 0.00 0.00 26 1012.3
20210617185805 84 211 0.0 4.0 0.00 0.00 0.00 25 1012.3
20210617185704 84 214 0.0 4.0 0.00 0.00 0.00 27 1012.4
20210617185604 84 225 0.0 3.0 0.00 0.00 0.00 26 1012.3
20210617185504 84 225 0.0 1.0 0.00 0.00 0.00 26 1012.3
20210617185404 84 225 0.0 1.0 0.00 0.00 0.00 25 1012.4
20210617185305 84 225 0.0 2.0 0.00 0.00 0.00 26 1012.4
20210617185204 84 225 0.0 2.0 0.00 0.00 0.00 28 1012.5
20210617185105 84 225 0.0 2.0 0.00 0.00 0.00 27 1012.4
20210617185004 84 225 0.0 2.0 0.00 0.00 0.00 27 1012.4
20210617184904 84 225 0.0 2.0 0.00 0.00 0.00 27 1012.4
20210617184804 84 225 0.0 2.0 0.00 0.00 0.00 27 1012.5
20210617184704 84 225 0.0 2.0 0.00 0.00 0.00 27 1012.5
20210617184604 84 225 0.0 2.0 0.00 0.00 0.00 25 1012.4
20210617184504 84 225 0.0 2.0 0.00 0.00 0.00 25 1012.4
20210617184404 85 225 0.0 2.0 0.00 0.00 0.00 26 1012.4
20210617184304 85 225 0.0 2.0 0.00 0.00 0.00 27 1012.5
20210617184204 85 225 0.0 1.0 0.00 0.00 0.00 28 1012.5
20210617184104 85 225 0.0 1.0 0.00 0.00 0.00 28 1012.4
20210617184004 85 225 0.0 1.0 0.00 0.00 0.00 27 1012.4
20210617183904 85 225 0.0 1.0 0.00 0.00 0.00 27 1012.4
20210617183804 84 225 0.0 1.0 0.00 0.00 0.00 27 1012.5
20210617183704 84 225 0.0 1.0 0.00 0.00 0.00 28 1012.4
20210617183604 84 225 0.0 2.0 0.00 0.00 0.00 28 1012.4
20210617183504 84 225 0.0 2.0 0.00 0.00 0.00 29 1012.4
20210617183404 84 225 0.0 3.0 0.00 0.00 0.00 28 1012.4
20210617183304 84 225 1.0 3.0 0.00 0.00 0.00 28 1012.4
20210617183204 84 225 1.0 3.0 0.00 0.00 0.00 26 1012.4
20210617183104 84 225 1.0 3.0 0.00 0.00 0.00 26 1012.4
20210617183004 84 225 1.0 3.0 0.00 0.00 0.00 27 1012.4
20210617182904 84 225 1.0 3.0 0.00 0.00 0.00 28 1012.5
20210617182805 84 225 1.0 3.0 0.00 0.00 0.00 25 1012.5
20210617182704 84 225 1.0 3.0 0.00 0.00 0.00 27 1012.5
20210617182604 84 225 1.0 3.0 0.00 0.00 0.00 27 1012.6
20210617182504 83 225 1.0 3.0 0.00 0.00 0.00 26 1012.6
20210617182404 83 225 1.0 3.0 0.00 0.00 0.00 27 1012.7
20210617182305 83 225 0.0 3.0 0.00 0.00 0.00 28 1012.7
20210617182204 83 225 0.0 2.0 0.00 0.00 0.00 27 1012.7
20210617182104 83 225 0.0 2.0 0.00 0.00 0.00 27 1012.7
20210617182004 83 225 1.0 2.0 0.00 0.00 0.00 26 1012.7
20210617181904 83 225 0.0 2.0 0.00 0.00 0.00 28 1012.7
20210617181804 83 225 0.0 2.0 0.00 0.00 0.00 28 1012.7
20210617181704 83 225 1.0 2.0 0.00 0.00 0.00 28 1012.7
20210617181604 83 225 0.0 2.0 0.00 0.00 0.00 29 1012.7
20210617181504 83 225 0.0 2.0 0.00 0.00 0.00 28 1012.7
20210617181404 83 225 0.0 2.0 0.00 0.00 0.00 28 1012.7